OCN874 EDDF-MDPC

Flight info

Callsign OCN874
Flight time 9h 43m
Altitude 35000
Route SOBRA2L/18 SOBRA Y180 DIK UN857 TOLVU DCT RAPOR DCT GIMER DCT ESTOC DCT PON/N0465F370 DCT DITAL DCT GODIX DCT DIDAK DCT KURIS DCT TERPO DCT ERIGA DCT AZFIC DCT LOTEE DCT PETEK DCT BANAL/M080F360 DCT 40N020W/M080F380 36N030W 33N040W 30N050W/M080F400 27N057W DCT FIVZE M597 KEEKA/N0458F400 DCT PLING DCT KATOK W12 PNA
Aircraft A332/H-SDE2E3FGHIJ3J4J5LM1OP2RWXYZ/LB1D1

Departure

Time 2026-04-07 10:28
Airport Frankfurt Main Airport (EDDF)

Arrival

Time 2026-04-07 20:12
Airport Punta Cana International Airport (MDPC)
Time Latitude Longitude Altitude Speed Heading
2026-04-07 09:38 50.04887 8.57974 367 ft 0 kts 12°
2026-04-07 10:10 50.04871 8.57969 368 ft 4 kts 12°
2026-04-07 10:10 50.04845 8.57960 363 ft 4 kts 11°
2026-04-07 10:10 50.04822 8.57953 367 ft 4 kts
2026-04-07 10:11 50.04798 8.57957 365 ft 4 kts 317°
2026-04-07 10:11 50.04790 8.57988 367 ft 4 kts 261°
2026-04-07 10:11 50.04797 8.58029 366 ft 4 kts 250°
2026-04-07 10:11 50.04801 8.58047 364 ft 0 kts 250°
2026-04-07 10:14 50.04801 8.58046 364 ft 1 kts 250°
2026-04-07 10:15 50.04795 8.58023 367 ft 4 kts 244°
2026-04-07 10:15 50.04769 8.57973 367 ft 7 kts 225°
2026-04-07 10:15 50.04730 8.57951 370 ft 5 kts 178°
2026-04-07 10:15 50.04695 8.57968 366 ft 5 kts 160°
2026-04-07 10:16 50.04661 8.57987 370 ft 5 kts 159°
2026-04-07 10:16 50.04624 8.58008 366 ft 6 kts 159°
2026-04-07 10:16 50.04595 8.58025 369 ft 3 kts 159°
2026-04-07 10:16 50.04579 8.58034 371 ft 2 kts 159°
2026-04-07 10:17 50.04558 8.58030 370 ft 5 kts 202°
2026-04-07 10:17 50.04533 8.57976 373 ft 7 kts 245°
2026-04-07 10:17 50.04509 8.57879 372 ft 11 kts 250°
2026-04-07 10:17 50.04482 8.57763 370 ft 12 kts 249°
2026-04-07 10:18 50.04453 8.57645 371 ft 12 kts 249°
2026-04-07 10:18 50.04423 8.57516 368 ft 14 kts 249°
2026-04-07 10:18 50.04389 8.57374 369 ft 14 kts 250°
2026-04-07 10:18 50.04355 8.57233 371 ft 14 kts 250°
2026-04-07 10:19 50.04322 8.57094 369 ft 14 kts 249°
2026-04-07 10:19 50.04255 8.56814 370 ft 13 kts 250°
2026-04-07 10:19 50.04223 8.56680 366 ft 14 kts 250°
2026-04-07 10:20 50.04190 8.56542 361 ft 13 kts 250°
2026-04-07 10:20 50.04158 8.56408 364 ft 13 kts 250°
2026-04-07 10:20 50.04127 8.56278 358 ft 13 kts 250°
2026-04-07 10:20 50.04098 8.56154 360 ft 12 kts 250°
2026-04-07 10:21 50.04068 8.56030 360 ft 12 kts 250°
2026-04-07 10:21 50.04048 8.55945 362 ft 13 kts 250°
2026-04-07 10:21 50.04016 8.55813 363 ft 13 kts 250°
2026-04-07 10:21 50.03983 8.55677 358 ft 14 kts 250°
2026-04-07 10:22 50.03950 8.55536 360 ft 13 kts 250°
2026-04-07 10:22 50.03919 8.55407 361 ft 13 kts 250°
2026-04-07 10:22 50.03888 8.55275 357 ft 13 kts 249°
2026-04-07 10:22 50.03855 8.55140 360 ft 14 kts 250°
2026-04-07 10:23 50.03820 8.54993 360 ft 15 kts 249°
2026-04-07 10:23 50.03783 8.54839 358 ft 15 kts 250°
2026-04-07 10:23 50.03745 8.54681 357 ft 16 kts 250°
2026-04-07 10:23 50.03706 8.54513 355 ft 17 kts 250°
2026-04-07 10:24 50.03663 8.54334 352 ft 18 kts 250°
2026-04-07 10:24 50.03620 8.54157 356 ft 17 kts 250°
2026-04-07 10:24 50.03578 8.53981 353 ft 17 kts 249°
2026-04-07 10:24 50.03536 8.53804 352 ft 18 kts 249°
2026-04-07 10:25 50.03493 8.53624 349 ft 18 kts 249°
2026-04-07 10:25 50.03449 8.53443 347 ft 18 kts 250°
2026-04-07 10:25 50.03406 8.53263 336 ft 18 kts 250°
2026-04-07 10:25 50.03362 8.53076 335 ft 18 kts 250°
2026-04-07 10:26 50.03318 8.52892 334 ft 19 kts 249°
2026-04-07 10:26 50.03273 8.52705 334 ft 18 kts 253°
2026-04-07 10:26 50.03225 8.52598 334 ft 11 kts 195°
2026-04-07 10:26 50.03208 8.52596 337 ft 0 kts 181°
2026-04-07 10:27 50.03167 8.52595 336 ft 26 kts 180°
2026-04-07 10:27 50.02783 8.52600 334 ft 83 kts 179°
2026-04-07 10:27 50.02030 8.52607 335 ft 132 kts 179°
2026-04-07 10:27 50.00962 8.52619 334 ft 173 kts 180°
2026-04-07 10:28 49.99735 8.52619 795 ft 177 kts 175°
2026-04-07 10:28 49.98493 8.52686 1432 ft 177 kts 175°
2026-04-07 10:28 49.97235 8.52784 1771 ft 187 kts 174°
2026-04-07 10:28 49.95879 8.52895 1929 ft 204 kts 175°
2026-04-07 10:29 49.94398 8.53010 2143 ft 220 kts 175°
2026-04-07 10:29 49.92828 8.53123 2450 ft 232 kts 175°
2026-04-07 10:29 49.91173 8.53253 2892 ft 242 kts 175°
2026-04-07 10:29 49.89480 8.53382 3579 ft 245 kts 175°
2026-04-07 10:30 49.87775 8.53433 4252 ft 246 kts 184°
2026-04-07 10:30 49.86085 8.52842 4763 ft 257 kts 198°
2026-04-07 10:30 49.84360 8.51895 5248 ft 267 kts 200°
2026-04-07 10:30 49.82595 8.50871 5835 ft 274 kts 201°
2026-04-07 10:31 49.80784 8.49828 6412 ft 281 kts 201°
2026-04-07 10:31 49.78942 8.48754 7056 ft 285 kts 205°
2026-04-07 10:31 49.77265 8.47150 7725 ft 284 kts 226°
2026-04-07 10:31 49.76177 8.44647 8393 ft 281 kts 253°
2026-04-07 10:32 49.75928 8.41697 9074 ft 278 kts 278°
2026-04-07 10:32 49.76285 8.38765 9759 ft 278 kts 286°
2026-04-07 10:32 49.76773 8.35852 10425 ft 281 kts 287°
2026-04-07 10:32 49.77284 8.32865 10756 ft 296 kts 287°
2026-04-07 10:33 49.77815 8.29700 10991 ft 313 kts 286°
2026-04-07 10:33 49.78366 8.26346 11217 ft 330 kts 286°
2026-04-07 10:33 49.78939 8.22824 11436 ft 344 kts 286°
2026-04-07 10:33 49.79526 8.19184 11887 ft 352 kts 285°
2026-04-07 10:34 49.80116 8.15494 12441 ft 355 kts 285°
2026-04-07 10:34 49.80712 8.11758 12988 ft 359 kts 285°
2026-04-07 10:34 49.81310 8.07987 13546 ft 362 kts 285°
2026-04-07 10:34 49.81913 8.04190 14118 ft 364 kts 285°
2026-04-07 10:35 49.82508 8.00419 14621 ft 367 kts 285°
2026-04-07 10:35 49.83122 7.96520 15140 ft 369 kts 285°
2026-04-07 10:35 49.83723 7.92694 15626 ft 371 kts 285°
2026-04-07 10:35 49.84335 7.88796 16122 ft 374 kts 285°
2026-04-07 10:36 49.84949 7.84872 16541 ft 376 kts 285°
2026-04-07 10:36 49.85566 7.80920 17102 ft 378 kts 285°
2026-04-07 10:36 49.86186 7.76946 17596 ft 381 kts 285°
2026-04-07 10:36 49.86815 7.72949 18072 ft 383 kts 285°
2026-04-07 10:37 49.87447 7.68924 18511 ft 386 kts 285°
2026-04-07 10:37 49.88079 7.64870 18941 ft 388 kts 285°
2026-04-07 10:37 49.88712 7.60780 19329 ft 391 kts 285°
2026-04-07 10:37 49.89346 7.56672 19713 ft 393 kts 285°
2026-04-07 10:38 49.89981 7.52540 20115 ft 395 kts 285°
2026-04-07 10:38 49.90619 7.48377 20515 ft 398 kts 285°
2026-04-07 10:38 49.91259 7.44192 20893 ft 400 kts 285°
2026-04-07 10:38 49.91899 7.39986 21284 ft 402 kts 285°
2026-04-07 10:39 49.92544 7.35753 21682 ft 404 kts 285°
2026-04-07 10:39 49.93190 7.31498 22054 ft 406 kts 285°
2026-04-07 10:39 49.93839 7.27220 22413 ft 409 kts 284°
2026-04-07 10:39 49.94490 7.22914 22758 ft 411 kts 284°
2026-04-07 10:40 49.95143 7.18584 23137 ft 413 kts 284°
2026-04-07 10:40 49.95798 7.14224 23476 ft 415 kts 284°
2026-04-07 10:40 49.96454 7.09838 23827 ft 418 kts 284°
2026-04-07 10:40 49.97111 7.05435 24123 ft 420 kts 284°
2026-04-07 10:41 49.97770 7.01005 24410 ft 422 kts 284°
2026-04-07 10:41 49.98430 6.96563 24690 ft 423 kts 284°
2026-04-07 10:41 49.98983 6.92053 24995 ft 426 kts 278°
2026-04-07 10:41 49.99152 6.87448 25298 ft 428 kts 272°
2026-04-07 10:42 49.99141 6.82813 25549 ft 431 kts 270°
2026-04-07 10:42 49.99044 6.78146 25846 ft 433 kts 269°
2026-04-07 10:42 49.98902 6.73464 26116 ft 435 kts 268°
2026-04-07 10:42 49.98741 6.68765 26396 ft 436 kts 268°
2026-04-07 10:43 49.98576 6.64049 26670 ft 438 kts 268°
2026-04-07 10:43 49.98312 6.59321 26939 ft 441 kts 263°
2026-04-07 10:43 49.97644 6.54655 27173 ft 444 kts 254°
2026-04-07 10:43 49.96621 6.50183 27428 ft 447 kts 250°
2026-04-07 10:44 49.95459 6.45701 27695 ft 449 kts 249°
2026-04-07 10:44 49.94223 6.41240 27967 ft 450 kts 248°
2026-04-07 10:44 49.92953 6.36786 28221 ft 452 kts 247°
2026-04-07 10:44 49.91669 6.32324 28514 ft 453 kts 247°
2026-04-07 10:45 49.90381 6.27859 28767 ft 454 kts 247°
2026-04-07 10:45 49.89065 6.23391 29010 ft 456 kts 247°
2026-04-07 10:45 49.87771 6.18890 29247 ft 458 kts 248°
2026-04-07 10:45 49.86416 6.14420 29497 ft 460 kts 243°
2026-04-07 10:46 49.84751 6.10175 29735 ft 462 kts 238°
2026-04-07 10:46 49.82963 6.06029 29980 ft 464 kts 237°
2026-04-07 10:46 49.81117 6.01921 30198 ft 466 kts 236°
2026-04-07 10:46 49.79234 5.97824 30408 ft 467 kts 236°
2026-04-07 10:47 49.77332 5.93729 30586 ft 469 kts 235°
2026-04-07 10:47 49.75468 5.89586 30776 ft 470 kts 239°
2026-04-07 10:47 49.73922 5.85147 30992 ft 469 kts 247°
2026-04-07 10:47 49.72674 5.80497 31244 ft 468 kts 249°
2026-04-07 10:48 49.71521 5.75815 31613 ft 464 kts 251°
2026-04-07 10:48 49.70420 5.71127 31855 ft 464 kts 251°
2026-04-07 10:48 49.69341 5.66430 32037 ft 465 kts 251°
2026-04-07 10:48 49.68264 5.61724 32339 ft 463 kts 251°
2026-04-07 10:49 49.67188 5.57047 32570 ft 463 kts 251°
2026-04-07 10:49 49.66102 5.52363 32741 ft 464 kts 251°
2026-04-07 10:49 49.65010 5.47686 33027 ft 462 kts 251°
2026-04-07 10:49 49.63915 5.43024 33273 ft 461 kts 251°
2026-04-07 10:50 49.62832 5.38429 33440 ft 463 kts 250°
2026-04-07 10:50 49.61774 5.33766 33793 ft 459 kts 251°
2026-04-07 10:50 49.60764 5.29113 34025 ft 458 kts 251°
2026-04-07 10:50 49.59769 5.24438 34146 ft 460 kts 251°
2026-04-07 10:51 49.58807 5.19734 34345 ft 459 kts 252°
2026-04-07 10:51 49.57934 5.15017 34590 ft 458 kts 253°
2026-04-07 10:51 49.57105 5.10283 34713 ft 459 kts 254°
2026-04-07 10:51 49.56290 5.05534 34890 ft 458 kts 254°
2026-04-07 10:52 49.55476 5.00809 35102 ft 456 kts 255°
2026-04-07 10:52 49.54654 4.96090 35253 ft 456 kts 254°
2026-04-07 10:52 49.53824 4.91381 35280 ft 456 kts 253°
2026-04-07 10:53 49.52150 4.82008 35277 ft 453 kts 253°
2026-04-07 10:53 49.50458 4.72650 35277 ft 454 kts 252°
2026-04-07 10:54 49.48762 4.63313 35273 ft 454 kts 253°
2026-04-07 10:54 49.47059 4.53977 35270 ft 453 kts 252°
2026-04-07 10:55 49.45347 4.44640 35265 ft 454 kts 252°
2026-04-07 10:55 49.43642 4.35384 35274 ft 453 kts 252°
2026-04-07 10:56 49.41904 4.25992 35261 ft 454 kts 252°
2026-04-07 10:56 49.40169 4.16670 35276 ft 454 kts 252°
2026-04-07 10:57 49.38437 4.07409 35279 ft 454 kts 252°
2026-04-07 10:57 49.36682 3.98041 35263 ft 454 kts 253°
2026-04-07 10:58 49.35209 3.88671 35261 ft 455 kts 256°
2026-04-07 10:58 49.33898 3.79182 35273 ft 455 kts 256°
2026-04-07 10:59 49.32576 3.69692 35256 ft 455 kts 256°
2026-04-07 10:59 49.31219 3.60223 35263 ft 455 kts 256°
2026-04-07 11:00 49.29840 3.50758 35257 ft 454 kts 255°
2026-04-07 11:00 49.28455 3.41337 35261 ft 453 kts 255°
2026-04-07 11:01 49.27065 3.31932 35263 ft 453 kts 255°
2026-04-07 11:01 49.25669 3.22532 35246 ft 453 kts 255°
2026-04-07 11:02 49.24262 3.13120 35255 ft 454 kts 255°
2026-04-07 11:02 49.22848 3.03706 35245 ft 454 kts 254°
2026-04-07 11:03 49.21426 2.94302 35239 ft 453 kts 254°
2026-04-07 11:03 49.19998 2.84913 35235 ft 453 kts 254°
2026-04-07 11:04 49.18563 2.75533 35237 ft 453 kts 254°
2026-04-07 11:04 49.17119 2.66155 35236 ft 453 kts 254°
2026-04-07 11:05 49.15671 2.56794 35236 ft 452 kts 254°
2026-04-07 11:05 49.14215 2.47448 35236 ft 452 kts 253°
2026-04-07 11:06 49.12884 2.38051 35235 ft 454 kts 258°
2026-04-07 11:06 49.11931 2.28525 35236 ft 454 kts 259°
2026-04-07 11:07 49.11044 2.18974 35220 ft 454 kts 259°
2026-04-07 11:07 49.10311 2.11042 35214 ft 454 kts 258°
2026-04-07 11:08 49.08903 2.01738 35210 ft 447 kts 246°
2026-04-07 11:08 49.06496 1.93006 35265 ft 446 kts 243°
2026-04-07 11:09 49.03891 1.84384 35381 ft 450 kts 242°
2026-04-07 11:09 49.02565 1.80060 35540 ft 450 kts 242°
2026-04-07 11:09 49.01243 1.75743 35718 ft 450 kts 242°
2026-04-07 11:09 48.99925 1.71429 35945 ft 448 kts 242°
2026-04-07 11:10 48.98619 1.67141 36109 ft 447 kts 242°
2026-04-07 11:10 48.97310 1.62844 36263 ft 447 kts 242°
2026-04-07 11:10 48.96002 1.58553 36394 ft 447 kts 242°
2026-04-07 11:10 48.94696 1.54270 36536 ft 447 kts 242°
2026-04-07 11:11 48.93388 1.49989 36673 ft 446 kts 242°
2026-04-07 11:11 48.92078 1.45709 36816 ft 446 kts 242°
2026-04-07 11:11 48.90769 1.41440 36953 ft 446 kts 242°
2026-04-07 11:11 48.89458 1.37174 37084 ft 445 kts 242°
2026-04-07 11:12 48.88165 1.32973 37191 ft 445 kts 242°
2026-04-07 11:12 48.85542 1.24469 37213 ft 444 kts 242°
2026-04-07 11:13 48.82921 1.16005 37208 ft 443 kts 242°
2026-04-07 11:13 48.80294 1.07550 37206 ft 443 kts 242°
2026-04-07 11:14 48.77658 0.99098 37198 ft 443 kts 242°
2026-04-07 11:14 48.75007 0.90670 37192 ft 442 kts 239°
2026-04-07 11:15 48.71941 0.82621 37183 ft 441 kts 236°
2026-04-07 11:15 48.68747 0.74685 37182 ft 441 kts 236°
2026-04-07 11:16 48.65527 0.66793 37180 ft 441 kts 236°
2026-04-07 11:16 48.62301 0.58895 37174 ft 442 kts 236°
2026-04-07 11:17 48.59073 0.50996 37165 ft 442 kts 236°
2026-04-07 11:17 48.55842 0.43105 37175 ft 442 kts 236°
2026-04-07 11:18 48.52600 0.35213 37163 ft 443 kts 236°
2026-04-07 11:18 48.49342 0.27304 37154 ft 444 kts 236°
2026-04-07 11:19 48.46084 0.19416 37154 ft 444 kts 236°
2026-04-07 11:19 48.42815 0.11527 37147 ft 444 kts 236°
2026-04-07 11:20 48.39540 0.03647 37149 ft 445 kts 236°
2026-04-07 11:20 48.36244 -0.04223 37146 ft 444 kts 234°
2026-04-07 11:21 48.32695 -0.11727 37141 ft 443 kts 231°
2026-04-07 11:21 48.28974 -0.19101 37140 ft 443 kts 231°
2026-04-07 11:22 48.25247 -0.26466 37139 ft 443 kts 231°
2026-04-07 11:22 48.21501 -0.33799 37135 ft 443 kts 231°
2026-04-07 11:23 48.17739 -0.41141 37135 ft 444 kts 231°
2026-04-07 11:23 48.13974 -0.48481 37133 ft 444 kts 231°
2026-04-07 11:24 48.10207 -0.55813 37131 ft 444 kts 231°
2026-04-07 11:24 48.06439 -0.63127 37131 ft 444 kts 231°
2026-04-07 11:25 48.00773 -0.74091 37128 ft 444 kts 230°
2026-04-07 11:25 47.96986 -0.81393 37130 ft 445 kts 230°
2026-04-07 11:26 47.93195 -0.88682 37130 ft 444 kts 230°
2026-04-07 11:26 47.89404 -0.95954 37112 ft 444 kts 230°
2026-04-07 11:27 47.85611 -1.03208 37106 ft 444 kts 230°
2026-04-07 11:27 47.81813 -1.10452 37104 ft 444 kts 230°
2026-04-07 11:28 47.78010 -1.17688 37102 ft 444 kts 230°
2026-04-07 11:28 47.74197 -1.24922 37094 ft 445 kts 230°
2026-04-07 11:29 47.70380 -1.32148 37099 ft 444 kts 230°
2026-04-07 11:29 47.66562 -1.39353 37094 ft 444 kts 230°
2026-04-07 11:30 47.62741 -1.46544 37075 ft 444 kts 230°
2026-04-07 11:30 47.58874 -1.53668 37085 ft 443 kts 227°
2026-04-07 11:31 47.54782 -1.60495 37084 ft 443 kts 226°
2026-04-07 11:31 47.50651 -1.67182 37078 ft 443 kts 225°
2026-04-07 11:32 47.46508 -1.73914 37075 ft 442 kts 226°
2026-04-07 11:32 47.42386 -1.80646 37076 ft 442 kts 226°
2026-04-07 11:33 47.38268 -1.87374 37074 ft 442 kts 226°
2026-04-07 11:33 47.33829 -1.93573 37074 ft 438 kts 213°
2026-04-07 11:34 47.28741 -1.98499 37075 ft 438 kts 210°
2026-04-07 11:34 47.23529 -2.03148 37074 ft 438 kts 209°
2026-04-07 11:35 47.18302 -2.07749 37079 ft 438 kts 209°
2026-04-07 11:35 47.13095 -2.12356 37071 ft 436 kts 210°
2026-04-07 11:36 47.07894 -2.16970 37072 ft 437 kts 210°
2026-04-07 11:36 47.02688 -2.21584 37072 ft 437 kts 210°
2026-04-07 11:37 46.97484 -2.26186 37072 ft 437 kts 210°
2026-04-07 11:37 46.92276 -2.30780 37069 ft 437 kts 210°
2026-04-07 11:38 46.87292 -2.35875 37074 ft 439 kts 221°
2026-04-07 11:38 46.83430 -2.42806 37075 ft 443 kts 235°
2026-04-07 11:39 46.80264 -2.50547 37066 ft 444 kts 237°
2026-04-07 11:39 46.77230 -2.58388 37070 ft 443 kts 238°
2026-04-07 11:40 46.74182 -2.66203 37064 ft 443 kts 237°
2026-04-07 11:40 46.71102 -2.73987 37064 ft 443 kts 237°
2026-04-07 11:41 46.68005 -2.81752 37064 ft 443 kts 237°
2026-04-07 11:41 46.64923 -2.89452 37062 ft 443 kts 237°
2026-04-07 11:42 46.61818 -2.97191 37052 ft 443 kts 237°
2026-04-07 11:42 46.58688 -3.04974 37059 ft 443 kts 237°
2026-04-07 11:43 46.55053 -3.12112 37055 ft 438 kts 225°
2026-04-07 11:43 46.50936 -3.18544 37053 ft 438 kts 224°
2026-04-07 11:44 46.46694 -3.24888 37052 ft 438 kts 223°
2026-04-07 11:44 46.42433 -3.31231 37050 ft 439 kts 223°
2026-04-07 11:45 46.38174 -3.37589 37047 ft 439 kts 223°
2026-04-07 11:45 46.33922 -3.43941 37048 ft 439 kts 223°
2026-04-07 11:46 46.29666 -3.50288 37048 ft 440 kts 223°
2026-04-07 11:46 46.25403 -3.56630 37045 ft 440 kts 223°
2026-04-07 11:47 46.21133 -3.62965 37046 ft 440 kts 223°
2026-04-07 11:47 46.16858 -3.69294 37042 ft 440 kts 223°
2026-04-07 11:48 46.12578 -3.75613 37042 ft 440 kts 223°
2026-04-07 11:48 46.08292 -3.81928 37042 ft 441 kts 223°
2026-04-07 11:49 46.04002 -3.88233 37042 ft 441 kts 223°
2026-04-07 11:49 45.99709 -3.94526 37042 ft 441 kts 223°
2026-04-07 11:50 45.95414 -4.00810 37044 ft 441 kts 223°
2026-04-07 11:50 45.91113 -4.07087 37045 ft 441 kts 223°
2026-04-07 11:51 45.86809 -4.13354 37045 ft 441 kts 223°
2026-04-07 11:51 45.82501 -4.19610 37046 ft 441 kts 223°
2026-04-07 11:52 45.78189 -4.25859 37041 ft 441 kts 223°
2026-04-07 11:52 45.73905 -4.32052 37042 ft 441 kts 223°
2026-04-07 11:53 45.69589 -4.38278 37042 ft 441 kts 223°
2026-04-07 11:53 45.65269 -4.44494 37042 ft 440 kts 223°
2026-04-07 11:54 45.60948 -4.50699 37039 ft 440 kts 223°
2026-04-07 11:54 45.56624 -4.56892 37038 ft 440 kts 222°
2026-04-07 11:55 45.52298 -4.63075 37037 ft 440 kts 222°
2026-04-07 11:55 45.48700 -4.68206 37050 ft 440 kts 222°
2026-04-07 11:56 45.44363 -4.74376 37033 ft 441 kts 222°
2026-04-07 11:56 45.40019 -4.80543 37034 ft 441 kts 222°
2026-04-07 11:57 45.35672 -4.86702 37034 ft 441 kts 222°
2026-04-07 11:57 45.31321 -4.92851 37028 ft 441 kts 222°
2026-04-07 11:58 45.26969 -4.98988 37026 ft 441 kts 222°
2026-04-07 11:58 45.22613 -5.05116 37024 ft 440 kts 222°
2026-04-07 11:59 45.18274 -5.11207 37023 ft 438 kts 222°
2026-04-07 11:59 45.13942 -5.17273 37023 ft 438 kts 222°
2026-04-07 12:00 45.09606 -5.23331 37019 ft 438 kts 222°
2026-04-07 12:00 45.05268 -5.29377 37019 ft 438 kts 222°
2026-04-07 12:01 45.00932 -5.35409 37009 ft 437 kts 222°
2026-04-07 12:01 44.96627 -5.41385 37006 ft 437 kts 221°
2026-04-07 12:02 44.92292 -5.47387 37004 ft 436 kts 221°
2026-04-07 12:02 44.87955 -5.53379 37001 ft 436 kts 221°
2026-04-07 12:03 44.83614 -5.59364 37000 ft 436 kts 221°
2026-04-07 12:03 44.79277 -5.65330 36996 ft 436 kts 221°
2026-04-07 12:04 44.74938 -5.71285 37019 ft 436 kts 221°
2026-04-07 12:04 44.70596 -5.77231 36996 ft 435 kts 221°
2026-04-07 12:05 44.66537 -5.83556 36988 ft 439 kts 232°
2026-04-07 12:05 44.63690 -5.91204 36988 ft 445 kts 242°
2026-04-07 12:06 44.61339 -5.99267 36984 ft 447 kts 244°
2026-04-07 12:06 44.59067 -6.07393 36982 ft 447 kts 244°
2026-04-07 12:07 44.56771 -6.15501 36974 ft 448 kts 244°
2026-04-07 12:07 44.54439 -6.23609 36973 ft 449 kts 244°
2026-04-07 12:08 44.52089 -6.31722 36971 ft 449 kts 244°
2026-04-07 12:08 44.49736 -6.39818 36960 ft 449 kts 244°
2026-04-07 12:09 44.47377 -6.47910 36983 ft 449 kts 243°
2026-04-07 12:09 44.45035 -6.55923 36958 ft 447 kts 243°
2026-04-07 12:10 44.42659 -6.64024 36954 ft 447 kts 243°
2026-04-07 12:10 44.40312 -6.72005 36951 ft 446 kts 243°
2026-04-07 12:11 44.37946 -6.80019 36946 ft 446 kts 243°
2026-04-07 12:11 44.35575 -6.88023 36940 ft 446 kts 242°
2026-04-07 12:12 44.33198 -6.96024 36955 ft 446 kts 242°
2026-04-07 12:12 44.30815 -7.04021 36925 ft 446 kts 242°
2026-04-07 12:13 44.28427 -7.12010 36945 ft 446 kts 242°
2026-04-07 12:13 44.26033 -7.19991 36938 ft 446 kts 242°
2026-04-07 12:14 44.23634 -7.27969 36937 ft 446 kts 241°
2026-04-07 12:14 44.21228 -7.35940 36931 ft 446 kts 241°
2026-04-07 12:15 44.18815 -7.43914 36929 ft 446 kts 241°
2026-04-07 12:15 44.16399 -7.51872 36923 ft 447 kts 240°
2026-04-07 12:16 44.13971 -7.59842 36934 ft 447 kts 240°
2026-04-07 12:16 44.11534 -7.67815 36918 ft 448 kts 240°
2026-04-07 12:17 44.09089 -7.75793 36919 ft 448 kts 240°
2026-04-07 12:17 44.06639 -7.83763 36918 ft 448 kts 240°
2026-04-07 12:18 44.04183 -7.91727 36919 ft 448 kts 240°
2026-04-07 12:18 44.01723 -7.99683 36913 ft 448 kts 240°
2026-04-07 12:19 43.99255 -8.07636 36908 ft 448 kts 240°
2026-04-07 12:19 43.96783 -8.15577 36908 ft 448 kts 240°
2026-04-07 12:20 43.94308 -8.23508 36907 ft 448 kts 240°
2026-04-07 12:20 43.91825 -8.31435 36902 ft 448 kts 240°
2026-04-07 12:21 43.89331 -8.39373 36902 ft 450 kts 240°
2026-04-07 12:21 43.86820 -8.47341 36900 ft 452 kts 239°
2026-04-07 12:22 43.84302 -8.55313 36898 ft 452 kts 239°
2026-04-07 12:22 43.81777 -8.63280 36895 ft 452 kts 239°
2026-04-07 12:23 43.79266 -8.71179 36895 ft 452 kts 239°
2026-04-07 12:23 43.76724 -8.79148 36895 ft 454 kts 239°
2026-04-07 12:24 43.74162 -8.87154 36895 ft 456 kts 239°
2026-04-07 12:24 43.71593 -8.95163 36892 ft 455 kts 239°
2026-04-07 12:25 43.69020 -9.03163 36892 ft 455 kts 239°
2026-04-07 12:25 43.66441 -9.11155 36923 ft 456 kts 238°
2026-04-07 12:26 43.63850 -9.19155 36888 ft 457 kts 238°
2026-04-07 12:26 43.61250 -9.27161 36887 ft 457 kts 238°
2026-04-07 12:27 43.58642 -9.35168 36886 ft 457 kts 238°
2026-04-07 12:27 43.56032 -9.43159 36890 ft 457 kts 238°
2026-04-07 12:28 43.53415 -9.51150 36896 ft 457 kts 238°
2026-04-07 12:29 43.49484 -9.63100 36886 ft 456 kts 237°
2026-04-07 12:29 43.46860 -9.71049 36882 ft 456 kts 237°
2026-04-07 12:30 43.44228 -9.78996 36880 ft 456 kts 237°
2026-04-07 12:30 43.41592 -9.86932 36892 ft 456 kts 237°
2026-04-07 12:31 43.38949 -9.94869 36875 ft 456 kts 237°
2026-04-07 12:31 43.36299 -10.02801 36872 ft 457 kts 237°
2026-04-07 12:32 43.33641 -10.10735 36873 ft 457 kts 237°
2026-04-07 12:32 43.30979 -10.18659 36860 ft 457 kts 237°
2026-04-07 12:33 43.28310 -10.26579 36860 ft 457 kts 237°
2026-04-07 12:33 43.25631 -10.34503 36860 ft 458 kts 237°
2026-04-07 12:34 43.22949 -10.42417 36859 ft 458 kts 237°
2026-04-07 12:34 43.20261 -10.50323 36855 ft 458 kts 237°
2026-04-07 12:35 43.17586 -10.58169 36873 ft 458 kts 237°
2026-04-07 12:35 43.14884 -10.66069 36848 ft 458 kts 238°
2026-04-07 12:36 43.12175 -10.73969 36852 ft 459 kts 238°
2026-04-07 12:36 43.09457 -10.81871 36847 ft 459 kts 238°
2026-04-07 12:37 43.06734 -10.89769 36840 ft 459 kts 238°
2026-04-07 12:37 43.04001 -10.97670 36845 ft 459 kts 239°
2026-04-07 12:38 43.01265 -11.05558 36840 ft 460 kts 239°
2026-04-07 12:38 42.98520 -11.13449 36838 ft 460 kts 239°
2026-04-07 12:39 42.95771 -11.21329 36833 ft 460 kts 239°
2026-04-07 12:39 42.93015 -11.29205 36837 ft 460 kts 239°
2026-04-07 12:40 42.90253 -11.37075 36839 ft 461 kts 240°
2026-04-07 12:40 42.87476 -11.44964 36838 ft 462 kts 240°
2026-04-07 12:41 42.84691 -11.52858 36846 ft 462 kts 240°
2026-04-07 12:41 42.81896 -11.60755 36835 ft 463 kts 240°
2026-04-07 12:42 42.79095 -11.68649 36832 ft 463 kts 240°
2026-04-07 12:42 42.76759 -11.75214 36828 ft 463 kts 240°
2026-04-07 12:43 42.73947 -11.83095 36830 ft 463 kts 240°
2026-04-07 12:43 42.71128 -11.90975 36827 ft 463 kts 240°
2026-04-07 12:44 42.68359 -11.98887 36830 ft 465 kts 244°
2026-04-07 12:44 42.66327 -12.07276 36834 ft 469 kts 250°
2026-04-07 12:45 42.64494 -12.15826 36827 ft 473 kts 251°
2026-04-07 12:45 42.62691 -12.24420 36829 ft 473 kts 251°
2026-04-07 12:46 42.60872 -12.33008 36829 ft 473 kts 251°
2026-04-07 12:46 42.59034 -12.41588 36847 ft 473 kts 251°
2026-04-07 12:47 42.57184 -12.50163 36829 ft 474 kts 251°
2026-04-07 12:47 42.55335 -12.58704 36829 ft 475 kts 251°
2026-04-07 12:48 42.53455 -12.67351 36829 ft 475 kts 251°
2026-04-07 12:48 42.51594 -12.75880 36827 ft 475 kts 251°
2026-04-07 12:49 42.49713 -12.84464 36825 ft 476 kts 252°
2026-04-07 12:49 42.47821 -12.93067 36822 ft 477 kts 252°
2026-04-07 12:50 42.45917 -13.01689 36824 ft 477 kts 252°
2026-04-07 12:50 42.44010 -13.10290 36824 ft 477 kts 252°
2026-04-07 12:51 42.42094 -13.18900 36825 ft 479 kts 252°
2026-04-07 12:51 42.40161 -13.27552 36827 ft 482 kts 252°
2026-04-07 12:52 42.38212 -13.36229 36829 ft 482 kts 251°
2026-04-07 12:52 42.36255 -13.44908 36830 ft 483 kts 251°
2026-04-07 12:53 42.34295 -13.53580 36835 ft 483 kts 252°
2026-04-07 12:53 42.32329 -13.62241 36832 ft 482 kts 252°
2026-04-07 12:54 42.30357 -13.70895 36834 ft 481 kts 252°
2026-04-07 12:54 42.28378 -13.79542 36841 ft 482 kts 252°
2026-04-07 12:55 42.26391 -13.88190 36845 ft 483 kts 253°
2026-04-07 12:55 42.24396 -13.96840 36847 ft 482 kts 253°
2026-04-07 12:56 42.22395 -14.05481 36844 ft 482 kts 252°
2026-04-07 12:56 42.20387 -14.14123 36853 ft 483 kts 252°
2026-04-07 12:57 42.18369 -14.22766 36861 ft 483 kts 253°
2026-04-07 12:57 42.16348 -14.31394 36862 ft 482 kts 253°
2026-04-07 12:58 42.14324 -14.40000 36874 ft 482 kts 253°
2026-04-07 12:58 42.12295 -14.48597 36875 ft 482 kts 253°
2026-04-07 12:59 42.10258 -14.57198 36883 ft 482 kts 253°
2026-04-07 12:59 42.08215 -14.65785 36893 ft 481 kts 254°
2026-04-07 13:00 42.06174 -14.74340 36900 ft 480 kts 253°
2026-04-07 13:00 42.04126 -14.82882 36915 ft 480 kts 255°
2026-04-07 13:01 42.02069 -14.91429 36914 ft 480 kts 254°
2026-04-07 13:01 41.99891 -14.99932 36926 ft 484 kts 249°
2026-04-07 13:02 41.97033 -15.08174 36925 ft 489 kts 247°
2026-04-07 13:02 41.94025 -15.16353 36925 ft 489 kts 246°
2026-04-07 13:03 41.90984 -15.24516 36940 ft 488 kts 248°
2026-04-07 13:03 41.87949 -15.32679 36941 ft 488 kts 246°
2026-04-07 13:04 41.84916 -15.40833 36956 ft 488 kts 246°
2026-04-07 13:04 41.81901 -15.48925 36959 ft 489 kts 247°
2026-04-07 13:05 41.78831 -15.57140 36964 ft 490 kts 247°
2026-04-07 13:05 41.75800 -15.65231 36972 ft 489 kts 249°
2026-04-07 13:06 41.72746 -15.73356 36986 ft 487 kts 249°
2026-04-07 13:06 41.69698 -15.81457 36996 ft 487 kts 248°
2026-04-07 13:07 41.66642 -15.89543 36995 ft 487 kts 248°
2026-04-07 13:07 41.63577 -15.97623 37011 ft 487 kts 246°
2026-04-07 13:08 41.60515 -16.05680 37020 ft 486 kts 247°
2026-04-07 13:08 41.57450 -16.13722 37017 ft 485 kts 248°
2026-04-07 13:09 41.54380 -16.21756 37034 ft 486 kts 247°
2026-04-07 13:09 41.51304 -16.29790 37036 ft 486 kts 247°
2026-04-07 13:10 41.48224 -16.37813 37046 ft 486 kts 248°
2026-04-07 13:10 41.45139 -16.45816 37051 ft 485 kts 248°
2026-04-07 13:11 41.42052 -16.53803 37063 ft 485 kts 248°
2026-04-07 13:11 41.38961 -16.61785 37063 ft 485 kts 248°
2026-04-07 13:12 41.35867 -16.69748 37078 ft 484 kts 248°
2026-04-07 13:12 41.32768 -16.77701 37091 ft 484 kts 248°
2026-04-07 13:13 41.29666 -16.85643 37093 ft 484 kts 248°
2026-04-07 13:13 41.26557 -16.93583 37101 ft 484 kts 248°
2026-04-07 13:14 41.23444 -17.01510 37102 ft 484 kts 248°
2026-04-07 13:14 41.20343 -17.09382 37118 ft 484 kts 249°
2026-04-07 13:15 41.17218 -17.17298 37118 ft 484 kts 249°
2026-04-07 13:15 41.14084 -17.25216 37126 ft 484 kts 249°
2026-04-07 13:16 41.10945 -17.33125 37137 ft 485 kts 249°
2026-04-07 13:16 41.07799 -17.41026 37109 ft 484 kts 250°
2026-04-07 13:17 41.04652 -17.48909 37148 ft 484 kts 250°
2026-04-07 13:17 41.01504 -17.56775 37150 ft 483 kts 250°
2026-04-07 13:18 40.98354 -17.64629 37157 ft 483 kts 250°
2026-04-07 13:18 40.95198 -17.72478 37161 ft 483 kts 250°
2026-04-07 13:19 40.92039 -17.80311 37171 ft 482 kts 251°
2026-04-07 13:19 40.88885 -17.88106 37170 ft 480 kts 251°
2026-04-07 13:20 40.85730 -17.95886 37181 ft 480 kts 251°
2026-04-07 13:20 40.82572 -18.03657 37192 ft 480 kts 251°
2026-04-07 13:21 40.79406 -18.11427 37181 ft 480 kts 252°
2026-04-07 13:21 40.76248 -18.19150 37203 ft 477 kts 252°
2026-04-07 13:22 40.73095 -18.26843 37202 ft 476 kts 252°
2026-04-07 13:22 40.69944 -18.34519 37208 ft 476 kts 252°
2026-04-07 13:23 40.66794 -18.42169 37210 ft 475 kts 252°
2026-04-07 13:23 40.63636 -18.49819 37233 ft 475 kts 252°
2026-04-07 13:24 40.60480 -18.57445 37213 ft 474 kts 252°
2026-04-07 13:24 40.57319 -18.65066 37231 ft 474 kts 252°
2026-04-07 13:25 40.54153 -18.72678 37226 ft 474 kts 252°
2026-04-07 13:25 40.50980 -18.80287 37237 ft 475 kts 252°
2026-04-07 13:26 40.47802 -18.87889 37232 ft 475 kts 252°
2026-04-07 13:26 40.44618 -18.95485 37248 ft 475 kts 252°
2026-04-07 13:27 40.41430 -19.03074 37252 ft 475 kts 251°
2026-04-07 13:27 40.38255 -19.10609 37248 ft 475 kts 251°
2026-04-07 13:28 40.35062 -19.18166 37258 ft 472 kts 252°
2026-04-07 13:28 40.31885 -19.25665 37266 ft 470 kts 252°
2026-04-07 13:29 40.29224 -19.31942 37268 ft 470 kts 252°
2026-04-07 13:29 40.26044 -19.39427 37274 ft 470 kts 252°
2026-04-07 13:30 40.22856 -19.46906 37218 ft 470 kts 252°
2026-04-07 13:30 40.19669 -19.54359 37281 ft 469 kts 252°
2026-04-07 13:31 40.16483 -19.61795 37281 ft 468 kts 252°
2026-04-07 13:31 40.13295 -19.69224 37296 ft 468 kts 252°
2026-04-07 13:32 40.10102 -19.76644 37292 ft 469 kts 252°
2026-04-07 13:32 40.06905 -19.84052 37295 ft 467 kts 252°
2026-04-07 13:33 40.03719 -19.91411 37298 ft 465 kts 252°
2026-04-07 13:33 39.99203 -20.02447 37306 ft 455 kts 257°
2026-04-07 13:34 39.96606 -20.09947 37311 ft 453 kts 258°
2026-04-07 13:34 39.94070 -20.17461 37306 ft 452 kts 258°
2026-04-07 13:35 39.91540 -20.24946 37320 ft 451 kts 258°
2026-04-07 13:35 39.89002 -20.32415 37320 ft 451 kts 258°
2026-04-07 13:36 39.86454 -20.39878 37328 ft 451 kts 258°
2026-04-07 13:36 39.83898 -20.47338 37274 ft 451 kts 258°
2026-04-07 13:37 39.81338 -20.54792 37336 ft 451 kts 257°
2026-04-07 13:37 39.78773 -20.62241 37342 ft 451 kts 257°
2026-04-07 13:38 39.76204 -20.69684 37341 ft 451 kts 257°
2026-04-07 13:38 39.73628 -20.77128 37348 ft 451 kts 257°
2026-04-07 13:39 39.71065 -20.84513 37348 ft 452 kts 257°
2026-04-07 13:39 39.68476 -20.91962 37352 ft 453 kts 257°
2026-04-07 13:40 39.65875 -20.99416 37355 ft 453 kts 257°
2026-04-07 13:40 39.63270 -21.06862 37365 ft 453 kts 257°
2026-04-07 13:41 39.60660 -21.14308 37315 ft 453 kts 256°
2026-04-07 13:41 39.58046 -21.21749 37371 ft 455 kts 256°
2026-04-07 13:42 39.55412 -21.29225 37370 ft 456 kts 256°
2026-04-07 13:42 39.52775 -21.36686 37377 ft 455 kts 256°
2026-04-07 13:43 39.50132 -21.44143 37380 ft 455 kts 256°
2026-04-07 13:43 39.47487 -21.51591 37372 ft 456 kts 256°
2026-04-07 13:44 39.44829 -21.59062 37382 ft 457 kts 256°
2026-04-07 13:44 39.42163 -21.66531 37383 ft 457 kts 255°
2026-04-07 13:45 39.39490 -21.73998 37390 ft 457 kts 255°
2026-04-07 13:45 39.36815 -21.81453 37351 ft 457 kts 255°
2026-04-07 13:46 39.34131 -21.88917 37397 ft 459 kts 255°
2026-04-07 13:46 39.31454 -21.96340 37398 ft 459 kts 255°
2026-04-07 13:47 39.28754 -22.03808 37398 ft 459 kts 255°
2026-04-07 13:47 39.26050 -22.11268 37403 ft 459 kts 255°
2026-04-07 13:48 39.23342 -22.18721 37406 ft 459 kts 255°
2026-04-07 13:48 39.20626 -22.26177 37408 ft 459 kts 255°
2026-04-07 13:49 39.17904 -22.33629 37408 ft 459 kts 255°
2026-04-07 13:49 39.15179 -22.41073 37409 ft 459 kts 255°
2026-04-07 13:50 39.12449 -22.48510 37399 ft 459 kts 254°
2026-04-07 13:50 39.09715 -22.55940 37414 ft 459 kts 254°
2026-04-07 13:51 39.06978 -22.63360 37419 ft 459 kts 254°
2026-04-07 13:51 39.04238 -22.70769 37420 ft 459 kts 254°
2026-04-07 13:52 39.01494 -22.78172 37425 ft 459 kts 254°
2026-04-07 13:52 38.98740 -22.85589 37426 ft 461 kts 254°
2026-04-07 13:53 38.95972 -22.93019 37429 ft 461 kts 254°
2026-04-07 13:53 38.93197 -23.00447 37434 ft 461 kts 253°
2026-04-07 13:54 38.90417 -23.07869 37433 ft 461 kts 253°
2026-04-07 13:54 38.87633 -23.15287 37435 ft 461 kts 253°
2026-04-07 13:55 38.84843 -23.22703 37435 ft 462 kts 253°
2026-04-07 13:55 38.82044 -23.30122 37437 ft 462 kts 253°
2026-04-07 13:56 38.79243 -23.37529 37454 ft 462 kts 253°
2026-04-07 13:56 38.76436 -23.44936 37435 ft 462 kts 252°
2026-04-07 13:57 38.73624 -23.52336 37446 ft 462 kts 252°
2026-04-07 13:57 38.70810 -23.59722 37450 ft 462 kts 252°
2026-04-07 13:58 38.67989 -23.67109 37453 ft 462 kts 252°
2026-04-07 13:58 38.65165 -23.74488 37451 ft 462 kts 252°
2026-04-07 13:59 38.62356 -23.81812 37454 ft 462 kts 252°
2026-04-07 13:59 38.59524 -23.89175 37455 ft 461 kts 251°
2026-04-07 14:00 38.56688 -23.96528 37459 ft 461 kts 251°
2026-04-07 14:00 38.53848 -24.03875 37467 ft 461 kts 251°
2026-04-07 14:01 38.51004 -24.11217 37474 ft 461 kts 251°
2026-04-07 14:01 38.48154 -24.18554 37456 ft 461 kts 250°
2026-04-07 14:02 38.45303 -24.25879 37476 ft 461 kts 250°
2026-04-07 14:02 38.42446 -24.33201 37460 ft 461 kts 250°
2026-04-07 14:03 38.39583 -24.40522 37467 ft 461 kts 250°
2026-04-07 14:03 38.36716 -24.47834 37474 ft 461 kts 250°
2026-04-07 14:04 38.33845 -24.55139 37474 ft 461 kts 250°
2026-04-07 14:04 38.30969 -24.62440 37476 ft 461 kts 250°
2026-04-07 14:05 38.28108 -24.69686 37483 ft 461 kts 250°
2026-04-07 14:05 38.25223 -24.76975 37479 ft 462 kts 249°
2026-04-07 14:06 38.22331 -24.84265 37482 ft 462 kts 249°
2026-04-07 14:06 38.19433 -24.91553 37489 ft 462 kts 249°
2026-04-07 14:07 38.16529 -24.98837 37487 ft 462 kts 249°
2026-04-07 14:07 38.13625 -25.06106 37491 ft 462 kts 248°
2026-04-07 14:08 38.10712 -25.13381 37488 ft 462 kts 248°
2026-04-07 14:08 38.07791 -25.20660 37492 ft 463 kts 248°
2026-04-07 14:09 38.04861 -25.27939 37495 ft 463 kts 248°
2026-04-07 14:09 38.01930 -25.35207 37494 ft 463 kts 248°
2026-04-07 14:10 37.98994 -25.42470 37497 ft 463 kts 248°
2026-04-07 14:10 37.96051 -25.49733 37502 ft 463 kts 248°
2026-04-07 14:11 37.93106 -25.56985 37506 ft 463 kts 248°
2026-04-07 14:11 37.90157 -25.64232 37494 ft 463 kts 248°
2026-04-07 14:12 37.87202 -25.71474 37508 ft 463 kts 247°
2026-04-07 14:12 37.84243 -25.78711 37509 ft 463 kts 247°
2026-04-07 14:13 37.81280 -25.85938 37509 ft 463 kts 247°
2026-04-07 14:13 37.78313 -25.93161 37507 ft 463 kts 247°
2026-04-07 14:14 37.75342 -26.00378 37510 ft 463 kts 246°
2026-04-07 14:14 37.72366 -26.07589 37517 ft 462 kts 246°
2026-04-07 14:15 37.69893 -26.13569 37520 ft 462 kts 246°
2026-04-07 14:15 37.66426 -26.21934 37520 ft 463 kts 246°
2026-04-07 14:16 37.63927 -26.27950 37513 ft 462 kts 245°
2026-04-07 14:16 37.60934 -26.35139 37519 ft 463 kts 245°
2026-04-07 14:17 37.57938 -26.42321 37525 ft 463 kts 245°
2026-04-07 14:17 37.54937 -26.49497 37524 ft 463 kts 245°
2026-04-07 14:18 37.51933 -26.56664 37516 ft 463 kts 245°
2026-04-07 14:18 37.48924 -26.63827 37533 ft 463 kts 245°
2026-04-07 14:19 37.45907 -26.70994 37532 ft 463 kts 245°
2026-04-07 14:19 37.42888 -26.78149 37532 ft 463 kts 245°
2026-04-07 14:20 37.39861 -26.85307 37529 ft 463 kts 245°
2026-04-07 14:20 37.36830 -26.92458 37533 ft 464 kts 245°
2026-04-07 14:21 37.33791 -26.99612 37538 ft 464 kts 245°
2026-04-07 14:21 37.30747 -27.06764 37537 ft 464 kts 245°
2026-04-07 14:22 37.27698 -27.13909 37539 ft 464 kts 244°
2026-04-07 14:22 37.24644 -27.21051 37536 ft 464 kts 245°
2026-04-07 14:23 37.21602 -27.28148 37538 ft 465 kts 244°
2026-04-07 14:23 37.18537 -27.35286 37535 ft 465 kts 244°
2026-04-07 14:24 37.15465 -27.42422 37542 ft 465 kts 244°
2026-04-07 14:24 37.12392 -27.49546 37539 ft 465 kts 244°
2026-04-07 14:25 37.09311 -27.56672 37553 ft 465 kts 244°
2026-04-07 14:25 37.06224 -27.63797 37550 ft 465 kts 244°
2026-04-07 14:26 37.03131 -27.70920 37547 ft 465 kts 244°
2026-04-07 14:26 37.00035 -27.78032 37533 ft 466 kts 244°
2026-04-07 14:27 36.96935 -27.85139 37546 ft 465 kts 244°
2026-04-07 14:27 36.93833 -27.92236 37553 ft 465 kts 244°
2026-04-07 14:28 36.90727 -27.99329 37557 ft 465 kts 244°
2026-04-07 14:28 36.87615 -28.06417 37556 ft 465 kts 244°
2026-04-07 14:29 36.84499 -28.13498 37553 ft 465 kts 244°
2026-04-07 14:29 36.81381 -28.20570 37552 ft 465 kts 244°
2026-04-07 14:30 36.78259 -28.27636 37562 ft 465 kts 244°
2026-04-07 14:30 36.75133 -28.34696 37559 ft 465 kts 244°
2026-04-07 14:31 36.72024 -28.41701 37560 ft 465 kts 244°
2026-04-07 14:31 36.68889 -28.48751 37561 ft 465 kts 244°
2026-04-07 14:32 36.65752 -28.55791 37567 ft 465 kts 244°
2026-04-07 14:32 36.62608 -28.62829 37565 ft 465 kts 244°
2026-04-07 14:33 36.59459 -28.69864 37560 ft 465 kts 244°
2026-04-07 14:33 36.56310 -28.76886 37565 ft 465 kts 244°
2026-04-07 14:34 36.53159 -28.83896 37567 ft 464 kts 244°
2026-04-07 14:34 36.50003 -28.90902 37567 ft 464 kts 244°
2026-04-07 14:35 36.46843 -28.97903 37562 ft 464 kts 244°
2026-04-07 14:35 36.43680 -29.04896 37570 ft 464 kts 244°
2026-04-07 14:36 36.40515 -29.11878 37573 ft 464 kts 244°
2026-04-07 14:36 36.37346 -29.18856 37575 ft 464 kts 244°
2026-04-07 14:37 36.34171 -29.25830 37560 ft 464 kts 244°
2026-04-07 14:37 36.30994 -29.32797 37577 ft 464 kts 244°
2026-04-07 14:38 36.27811 -29.39758 37578 ft 464 kts 244°
2026-04-07 14:38 36.24627 -29.46711 37575 ft 464 kts 244°
2026-04-07 14:39 36.19842 -29.57130 37580 ft 464 kts 244°
2026-04-07 14:40 36.16648 -29.64066 37579 ft 463 kts 244°
2026-04-07 14:40 36.13455 -29.70988 37564 ft 463 kts 244°
2026-04-07 14:41 36.10255 -29.77909 37580 ft 463 kts 244°
2026-04-07 14:41 36.07054 -29.84817 37576 ft 463 kts 245°
2026-04-07 14:42 36.03878 -29.91658 37584 ft 461 kts 245°
2026-04-07 14:42 36.00745 -29.98556 37583 ft 458 kts 249°
2026-04-07 14:43 35.98524 -30.05857 37586 ft 453 kts 256°
2026-04-07 14:43 35.96631 -30.13269 37577 ft 452 kts 258°
2026-04-07 14:44 35.94804 -30.20669 37587 ft 450 kts 258°
2026-04-07 14:44 35.92968 -30.28049 37586 ft 450 kts 258°
2026-04-07 14:45 35.91117 -30.35414 37589 ft 450 kts 258°
2026-04-07 14:45 35.89254 -30.42774 37582 ft 449 kts 258°
2026-04-07 14:46 35.87391 -30.50110 37587 ft 447 kts 258°
2026-04-07 14:46 35.85530 -30.57420 37589 ft 447 kts 258°
2026-04-07 14:47 35.83667 -30.64724 37589 ft 447 kts 258°
2026-04-07 14:47 35.81798 -30.72030 37587 ft 447 kts 258°
2026-04-07 14:48 35.79928 -30.79316 37589 ft 446 kts 258°
2026-04-07 14:48 35.78054 -30.86597 37589 ft 446 kts 258°
2026-04-07 14:49 35.76176 -30.93877 37589 ft 446 kts 258°
2026-04-07 14:49 35.74294 -31.01149 37585 ft 446 kts 258°
2026-04-07 14:50 35.72420 -31.08368 37589 ft 445 kts 258°
2026-04-07 14:50 35.70532 -31.15625 37589 ft 445 kts 257°
2026-04-07 14:51 35.68642 -31.22867 37787 ft 444 kts 257°
2026-04-07 14:51 35.67695 -31.26485 37948 ft 444 kts 257°
2026-04-07 14:51 35.66749 -31.30097 38123 ft 444 kts 257°
2026-04-07 14:51 35.65803 -31.33706 38295 ft 443 kts 257°
2026-04-07 14:52 35.64857 -31.37310 38443 ft 443 kts 257°
2026-04-07 14:52 35.63908 -31.40918 38559 ft 444 kts 257°
2026-04-07 14:52 35.62957 -31.44537 38589 ft 446 kts 257°
2026-04-07 14:53 35.61046 -31.51778 38591 ft 445 kts 257°
2026-04-07 14:53 35.59134 -31.58999 38591 ft 444 kts 257°
2026-04-07 14:54 35.57222 -31.66204 38594 ft 444 kts 257°
2026-04-07 14:54 35.55307 -31.73406 38594 ft 444 kts 257°
2026-04-07 14:55 35.53387 -31.80605 38576 ft 444 kts 257°
2026-04-07 14:55 35.51462 -31.87801 38589 ft 443 kts 257°
2026-04-07 14:56 35.49535 -31.94986 38600 ft 443 kts 257°
2026-04-07 14:56 35.47615 -32.02126 38599 ft 444 kts 256°
2026-04-07 14:57 35.45679 -32.09307 38588 ft 443 kts 256°
2026-04-07 14:57 35.43739 -32.16485 38595 ft 443 kts 256°
2026-04-07 14:58 35.41795 -32.23654 38599 ft 443 kts 256°
2026-04-07 14:58 35.39847 -32.30822 38593 ft 443 kts 256°
2026-04-07 14:59 35.37894 -32.37989 38592 ft 443 kts 255°
2026-04-07 14:59 35.35938 -32.45147 38599 ft 443 kts 255°
2026-04-07 15:00 35.33976 -32.52306 38599 ft 443 kts 255°
2026-04-07 15:00 35.32009 -32.59470 38602 ft 443 kts 255°
2026-04-07 15:01 35.30039 -32.66622 38604 ft 443 kts 255°
2026-04-07 15:01 35.28065 -32.73770 38600 ft 444 kts 255°
2026-04-07 15:02 35.26084 -32.80926 38601 ft 444 kts 255°
2026-04-07 15:02 35.24099 -32.88076 38599 ft 444 kts 255°
2026-04-07 15:03 35.22111 -32.95222 38599 ft 444 kts 254°
2026-04-07 15:03 35.20453 -33.01165 38602 ft 444 kts 254°
2026-04-07 15:04 35.18455 -33.08308 38602 ft 444 kts 254°
2026-04-07 15:04 35.16452 -33.15452 38600 ft 444 kts 254°
2026-04-07 15:05 35.14446 -33.22589 38600 ft 444 kts 253°
2026-04-07 15:05 35.12433 -33.29732 38597 ft 445 kts 253°
2026-04-07 15:06 35.10417 -33.36866 38597 ft 445 kts 253°
2026-04-07 15:06 35.08396 -33.44002 38590 ft 445 kts 253°
2026-04-07 15:07 35.06368 -33.51144 38597 ft 445 kts 253°
2026-04-07 15:07 35.04336 -33.58282 38597 ft 445 kts 253°
2026-04-07 15:08 35.02298 -33.65419 38597 ft 445 kts 253°
2026-04-07 15:08 35.00272 -33.72501 38595 ft 445 kts 252°
2026-04-07 15:09 34.98225 -33.79635 38597 ft 446 kts 252°
2026-04-07 15:09 34.96175 -33.86764 38594 ft 446 kts 252°
2026-04-07 15:10 34.94119 -33.93894 38594 ft 446 kts 252°
2026-04-07 15:10 34.92060 -34.01013 38594 ft 446 kts 252°
2026-04-07 15:11 34.89996 -34.08137 38594 ft 446 kts 252°
2026-04-07 15:11 34.87928 -34.15256 38592 ft 446 kts 252°
2026-04-07 15:12 34.85856 -34.22369 38588 ft 446 kts 252°
2026-04-07 15:12 34.83780 -34.29480 38591 ft 446 kts 252°
2026-04-07 15:13 34.81698 -34.36591 38591 ft 446 kts 252°
2026-04-07 15:13 34.79612 -34.43700 38591 ft 446 kts 252°
2026-04-07 15:14 34.77522 -34.50804 38591 ft 446 kts 251°
2026-04-07 15:14 34.75427 -34.57907 38594 ft 447 kts 251°
2026-04-07 15:15 34.73325 -34.65019 38591 ft 447 kts 251°
2026-04-07 15:15 34.71221 -34.72117 38591 ft 447 kts 251°
2026-04-07 15:16 34.69111 -34.79219 38588 ft 446 kts 251°
2026-04-07 15:16 34.66998 -34.86310 38589 ft 446 kts 251°
2026-04-07 15:17 34.64883 -34.93397 38589 ft 446 kts 251°
2026-04-07 15:17 34.62762 -35.00483 38589 ft 446 kts 251°
2026-04-07 15:18 34.60655 -35.07506 38589 ft 445 kts 251°
2026-04-07 15:18 34.58518 -35.14611 38589 ft 445 kts 251°
2026-04-07 15:19 34.56392 -35.21663 38589 ft 445 kts 251°
2026-04-07 15:19 34.54262 -35.28708 38589 ft 444 kts 251°
2026-04-07 15:20 34.52150 -35.35680 38589 ft 443 kts 251°
2026-04-07 15:20 34.50021 -35.42692 38590 ft 443 kts 251°
2026-04-07 15:21 34.47887 -35.49701 38589 ft 443 kts 251°
2026-04-07 15:21 34.45754 -35.56693 38587 ft 442 kts 251°
2026-04-07 15:22 34.43621 -35.63665 38587 ft 441 kts 251°
2026-04-07 15:22 34.41488 -35.70626 38586 ft 441 kts 251°
2026-04-07 15:23 34.39348 -35.77590 38583 ft 441 kts 251°
2026-04-07 15:23 34.37209 -35.84532 38586 ft 440 kts 250°
2026-04-07 15:24 34.35071 -35.91459 38582 ft 439 kts 250°
2026-04-07 15:24 34.32927 -35.98387 38584 ft 440 kts 250°
2026-04-07 15:25 34.30780 -36.05309 38584 ft 439 kts 250°
2026-04-07 15:25 34.28632 -36.12218 38583 ft 439 kts 250°
2026-04-07 15:26 34.26479 -36.19125 38581 ft 439 kts 250°
2026-04-07 15:26 34.24324 -36.26025 38577 ft 439 kts 250°
2026-04-07 15:27 34.22164 -36.32924 38578 ft 439 kts 250°
2026-04-07 15:27 34.20000 -36.39822 38578 ft 439 kts 250°
2026-04-07 15:28 34.17830 -36.46721 38575 ft 439 kts 250°
2026-04-07 15:28 34.15656 -36.53617 38578 ft 439 kts 250°
2026-04-07 15:29 34.13480 -36.60505 38578 ft 439 kts 250°
2026-04-07 15:29 34.11298 -36.67397 38575 ft 439 kts 250°
2026-04-07 15:30 34.09128 -36.74233 38575 ft 439 kts 250°
2026-04-07 15:30 34.06937 -36.81120 38577 ft 440 kts 250°
2026-04-07 15:31 34.04744 -36.88000 38578 ft 440 kts 249°
2026-04-07 15:31 34.02541 -36.94893 38572 ft 440 kts 249°
2026-04-07 15:32 34.00337 -37.01774 38573 ft 440 kts 249°
2026-04-07 15:32 33.98127 -37.08660 38572 ft 441 kts 249°
2026-04-07 15:33 33.95912 -37.15543 38572 ft 441 kts 249°
2026-04-07 15:33 33.93693 -37.22424 38573 ft 441 kts 249°
2026-04-07 15:34 33.91470 -37.29304 38573 ft 440 kts 249°
2026-04-07 15:34 33.89247 -37.36168 38571 ft 440 kts 249°
2026-04-07 15:35 33.87019 -37.43031 38570 ft 440 kts 249°
2026-04-07 15:35 33.84794 -37.49870 38571 ft 436 kts 248°
2026-04-07 15:36 33.82606 -37.56580 38574 ft 432 kts 248°
2026-04-07 15:36 33.80408 -37.63307 38571 ft 432 kts 248°
2026-04-07 15:37 33.78203 -37.70038 38570 ft 433 kts 248°
2026-04-07 15:37 33.75996 -37.76764 38568 ft 432 kts 248°
2026-04-07 15:38 33.73787 -37.83479 38568 ft 432 kts 248°
2026-04-07 15:38 33.71575 -37.90189 38571 ft 432 kts 248°
2026-04-07 15:39 33.69359 -37.96897 38563 ft 432 kts 248°
2026-04-07 15:39 33.67143 -38.03594 38562 ft 431 kts 248°
2026-04-07 15:40 33.64926 -38.10277 38563 ft 431 kts 248°
2026-04-07 15:40 33.62704 -38.16959 38562 ft 431 kts 248°
2026-04-07 15:41 33.60480 -38.23635 38562 ft 430 kts 248°
2026-04-07 15:41 33.58257 -38.30295 38563 ft 430 kts 248°
2026-04-07 15:42 33.56032 -38.36944 38562 ft 430 kts 248°
2026-04-07 15:42 33.52687 -38.46914 38562 ft 429 kts 248°
2026-04-07 15:43 33.50460 -38.53536 38561 ft 428 kts 248°
2026-04-07 15:43 33.48229 -38.60154 38559 ft 428 kts 248°
2026-04-07 15:44 33.45996 -38.66767 38564 ft 428 kts 248°
2026-04-07 15:44 33.43760 -38.73374 38560 ft 428 kts 248°
2026-04-07 15:45 33.41521 -38.79976 38560 ft 428 kts 248°
2026-04-07 15:45 33.39279 -38.86571 38560 ft 428 kts 248°
2026-04-07 15:46 33.37034 -38.93165 38564 ft 428 kts 247°
2026-04-07 15:46 33.34785 -38.99752 38559 ft 428 kts 247°
2026-04-07 15:47 33.32533 -39.06338 38558 ft 428 kts 247°
2026-04-07 15:47 33.30294 -39.12873 38554 ft 428 kts 247°
2026-04-07 15:48 33.28034 -39.19452 38556 ft 427 kts 247°
2026-04-07 15:48 33.25776 -39.26015 38557 ft 427 kts 247°
2026-04-07 15:49 33.23512 -39.32581 38552 ft 427 kts 247°
2026-04-07 15:49 33.21247 -39.39138 38554 ft 427 kts 247°
2026-04-07 15:50 33.18979 -39.45690 38553 ft 427 kts 247°
2026-04-07 15:50 33.16707 -39.52236 38551 ft 427 kts 247°
2026-04-07 15:51 33.14434 -39.58776 38552 ft 427 kts 247°
2026-04-07 15:51 33.12542 -39.64209 38551 ft 426 kts 247°
2026-04-07 15:52 33.10268 -39.70728 38547 ft 426 kts 247°
2026-04-07 15:52 33.07991 -39.77241 38550 ft 426 kts 247°
2026-04-07 15:53 33.05707 -39.83760 38549 ft 426 kts 247°
2026-04-07 15:53 33.03424 -39.90264 38547 ft 425 kts 247°
2026-04-07 15:54 33.01141 -39.96757 38549 ft 425 kts 247°
2026-04-07 15:54 32.99159 -40.03388 38547 ft 425 kts 252°
2026-04-07 15:55 32.97422 -40.10113 38549 ft 425 kts 253°
2026-04-07 15:55 32.95728 -40.16845 38547 ft 424 kts 253°
2026-04-07 15:56 32.94032 -40.23574 38546 ft 424 kts 253°
2026-04-07 15:56 32.92324 -40.30300 38545 ft 424 kts 253°
2026-04-07 15:57 32.90611 -40.37015 38545 ft 424 kts 253°
2026-04-07 15:57 32.88896 -40.43722 38546 ft 424 kts 253°
2026-04-07 15:58 32.87187 -40.50387 38544 ft 424 kts 253°
2026-04-07 15:58 32.85466 -40.57086 38544 ft 424 kts 253°
2026-04-07 15:59 32.83740 -40.63784 38544 ft 424 kts 253°
2026-04-07 15:59 32.82012 -40.70476 38541 ft 424 kts 253°
2026-04-07 16:00 32.80281 -40.77165 38543 ft 423 kts 253°
2026-04-07 16:00 32.78547 -40.83847 38547 ft 423 kts 253°
2026-04-07 16:01 32.76810 -40.90523 38544 ft 423 kts 253°
2026-04-07 16:01 32.75071 -40.97190 38540 ft 423 kts 253°
2026-04-07 16:02 32.73329 -41.03857 38541 ft 422 kts 253°
2026-04-07 16:02 32.71584 -41.10514 38538 ft 422 kts 253°
2026-04-07 16:03 32.69836 -41.17171 38538 ft 422 kts 253°
2026-04-07 16:03 32.68084 -41.23824 38536 ft 422 kts 253°
2026-04-07 16:04 32.66329 -41.30473 38547 ft 422 kts 253°
2026-04-07 16:04 32.64572 -41.37115 38535 ft 421 kts 253°
2026-04-07 16:05 32.62814 -41.43745 38535 ft 421 kts 253°
2026-04-07 16:05 32.61053 -41.50369 38536 ft 421 kts 253°
2026-04-07 16:06 32.59291 -41.56981 38527 ft 421 kts 253°
2026-04-07 16:06 32.57521 -41.63612 38533 ft 421 kts 253°
2026-04-07 16:07 32.55748 -41.70232 38530 ft 421 kts 253°
2026-04-07 16:07 32.53972 -41.76850 38529 ft 421 kts 253°
2026-04-07 16:08 32.52192 -41.83469 38528 ft 422 kts 252°
2026-04-07 16:08 32.50409 -41.90085 38527 ft 422 kts 252°
2026-04-07 16:09 32.48620 -41.96702 38527 ft 422 kts 252°
2026-04-07 16:09 32.46841 -42.03271 38528 ft 422 kts 252°
2026-04-07 16:10 32.45045 -42.09887 38527 ft 422 kts 252°
2026-04-07 16:10 32.43247 -42.16496 38522 ft 422 kts 252°
2026-04-07 16:11 32.41433 -42.23144 38519 ft 422 kts 252°
2026-04-07 16:11 32.39642 -42.29697 38519 ft 421 kts 252°
2026-04-07 16:12 32.37835 -42.36291 38519 ft 421 kts 252°
2026-04-07 16:12 32.36024 -42.42885 38518 ft 421 kts 252°
2026-04-07 16:13 32.34215 -42.49457 38519 ft 420 kts 252°
2026-04-07 16:13 32.32403 -42.56026 38516 ft 420 kts 252°
2026-04-07 16:14 32.30588 -42.62587 38516 ft 420 kts 252°
2026-04-07 16:14 32.28774 -42.69134 38517 ft 419 kts 252°
2026-04-07 16:15 32.26959 -42.75669 38516 ft 418 kts 252°
2026-04-07 16:15 32.25141 -42.82197 38513 ft 418 kts 252°
2026-04-07 16:16 32.23322 -42.88717 38511 ft 417 kts 252°
2026-04-07 16:16 32.21504 -42.95218 38509 ft 417 kts 252°
2026-04-07 16:17 32.19683 -43.01716 38508 ft 417 kts 252°
2026-04-07 16:17 32.17855 -43.08222 38506 ft 418 kts 252°
2026-04-07 16:18 32.16019 -43.14743 38508 ft 419 kts 252°
2026-04-07 16:18 32.14179 -43.21267 38506 ft 419 kts 252°
2026-04-07 16:19 32.12336 -43.27782 38503 ft 419 kts 252°
2026-04-07 16:19 32.10491 -43.34294 38503 ft 419 kts 252°
2026-04-07 16:20 32.08641 -43.40807 38503 ft 419 kts 252°
2026-04-07 16:20 32.06802 -43.47268 38500 ft 418 kts 252°
2026-04-07 16:21 32.04951 -43.53756 38500 ft 417 kts 251°
2026-04-07 16:21 32.03098 -43.60235 38493 ft 417 kts 251°
2026-04-07 16:22 32.01241 -43.66716 38494 ft 417 kts 251°
2026-04-07 16:22 31.99384 -43.73182 38492 ft 416 kts 251°
2026-04-07 16:23 31.97526 -43.79639 38487 ft 416 kts 251°
2026-04-07 16:23 31.95663 -43.86098 38487 ft 416 kts 251°
2026-04-07 16:24 31.93801 -43.92542 38487 ft 416 kts 251°
2026-04-07 16:24 31.91935 -43.98984 38487 ft 416 kts 251°
2026-04-07 16:25 31.90066 -44.05423 38481 ft 416 kts 251°
2026-04-07 16:25 31.88194 -44.11857 38487 ft 415 kts 251°
2026-04-07 16:26 31.86320 -44.18287 38483 ft 415 kts 251°
2026-04-07 16:26 31.84445 -44.24705 38478 ft 415 kts 251°
2026-04-07 16:27 31.82568 -44.31118 38478 ft 415 kts 251°
2026-04-07 16:27 31.80688 -44.37525 38480 ft 414 kts 251°
2026-04-07 16:28 31.78804 -44.43932 38475 ft 415 kts 251°
2026-04-07 16:28 31.76919 -44.50332 38477 ft 415 kts 251°
2026-04-07 16:29 31.75028 -44.56737 38475 ft 415 kts 251°
2026-04-07 16:29 31.73134 -44.63138 38474 ft 415 kts 250°
2026-04-07 16:30 31.71236 -44.69540 38473 ft 415 kts 250°
2026-04-07 16:30 31.69335 -44.75939 38476 ft 415 kts 250°
2026-04-07 16:31 31.67429 -44.82340 38473 ft 415 kts 250°
2026-04-07 16:31 31.65520 -44.88738 38471 ft 416 kts 250°
2026-04-07 16:32 31.63606 -44.95140 38470 ft 416 kts 250°
2026-04-07 16:32 31.61688 -45.01542 38474 ft 416 kts 250°
2026-04-07 16:33 31.59769 -45.07936 38470 ft 415 kts 250°
2026-04-07 16:33 31.57847 -45.14323 38470 ft 415 kts 250°
2026-04-07 16:34 31.55923 -45.20708 38471 ft 416 kts 250°
2026-04-07 16:34 31.53993 -45.27095 38468 ft 416 kts 250°
2026-04-07 16:35 31.52060 -45.33481 38466 ft 416 kts 250°
2026-04-07 16:35 31.50124 -45.39864 38469 ft 416 kts 250°
2026-04-07 16:36 31.48199 -45.46200 38469 ft 416 kts 250°
2026-04-07 16:36 31.46574 -45.51535 38462 ft 416 kts 250°
2026-04-07 16:37 31.44628 -45.57914 38474 ft 415 kts 250°
2026-04-07 16:37 31.42680 -45.64285 38461 ft 416 kts 250°
2026-04-07 16:38 31.40729 -45.70656 38450 ft 416 kts 250°
2026-04-07 16:38 31.38774 -45.77025 38460 ft 416 kts 250°
2026-04-07 16:39 31.36804 -45.83429 38597 ft 420 kts 250°
2026-04-07 16:39 31.35813 -45.86645 38753 ft 420 kts 250°
2026-04-07 16:39 31.34821 -45.89863 38915 ft 420 kts 250°
2026-04-07 16:40 31.33828 -45.93080 39100 ft 420 kts 250°
2026-04-07 16:40 31.32838 -45.96286 39240 ft 420 kts 250°
2026-04-07 16:40 31.30847 -46.02718 39429 ft 421 kts 250°
2026-04-07 16:41 31.29849 -46.05940 39552 ft 421 kts 250°
2026-04-07 16:41 31.28852 -46.09155 39671 ft 421 kts 250°
2026-04-07 16:41 31.27851 -46.12377 39787 ft 422 kts 250°
2026-04-07 16:41 31.26849 -46.15602 39899 ft 422 kts 250°
2026-04-07 16:42 31.25846 -46.18822 40015 ft 422 kts 250°
2026-04-07 16:42 31.24841 -46.22048 40094 ft 423 kts 250°
2026-04-07 16:42 31.22827 -46.28506 40284 ft 423 kts 250°
2026-04-07 16:43 31.21831 -46.31694 40401 ft 423 kts 250°
2026-04-07 16:43 31.20820 -46.34927 40442 ft 425 kts 250°
2026-04-07 16:43 31.18780 -46.41438 40455 ft 429 kts 250°
2026-04-07 16:44 31.16724 -46.47989 40452 ft 429 kts 250°
2026-04-07 16:44 31.14667 -46.54530 40453 ft 429 kts 250°
2026-04-07 16:45 31.12607 -46.61064 40440 ft 429 kts 250°
2026-04-07 16:45 31.10540 -46.67610 40456 ft 430 kts 250°
2026-04-07 16:46 31.08468 -46.74158 40438 ft 430 kts 250°
2026-04-07 16:46 31.06392 -46.80706 40445 ft 430 kts 250°
2026-04-07 16:47 31.04314 -46.87244 40443 ft 430 kts 250°
2026-04-07 16:47 31.02235 -46.93774 40441 ft 430 kts 250°
2026-04-07 16:48 31.00151 -47.00306 40432 ft 430 kts 250°
2026-04-07 16:49 30.97011 -47.10127 40437 ft 432 kts 250°
2026-04-07 16:49 30.94911 -47.16673 40439 ft 431 kts 250°
2026-04-07 16:50 30.92810 -47.23212 40442 ft 432 kts 250°
2026-04-07 16:50 30.90695 -47.29783 40433 ft 434 kts 250°
2026-04-07 16:51 30.88574 -47.36361 40424 ft 434 kts 250°
2026-04-07 16:51 30.86451 -47.42926 40438 ft 433 kts 250°
2026-04-07 16:52 30.84324 -47.49495 40434 ft 434 kts 250°
2026-04-07 16:52 30.82189 -47.56073 40429 ft 435 kts 250°
2026-04-07 16:53 30.80048 -47.62656 40429 ft 435 kts 251°
2026-04-07 16:53 30.77903 -47.69240 40429 ft 436 kts 250°
2026-04-07 16:54 30.75751 -47.75831 40432 ft 436 kts 250°
2026-04-07 16:54 30.73595 -47.82423 40429 ft 436 kts 251°
2026-04-07 16:55 30.71448 -47.88972 40430 ft 437 kts 251°
2026-04-07 16:55 30.69280 -47.95575 40421 ft 437 kts 250°
2026-04-07 16:56 30.67108 -48.02174 40425 ft 437 kts 251°
2026-04-07 16:56 30.64932 -48.08776 40424 ft 438 kts 251°
2026-04-07 16:57 30.62749 -48.15381 40429 ft 438 kts 251°
2026-04-07 16:57 30.60563 -48.21984 40426 ft 438 kts 251°
2026-04-07 16:58 30.58372 -48.28591 40425 ft 439 kts 251°
2026-04-07 16:58 30.56174 -48.35204 40422 ft 440 kts 251°
2026-04-07 16:59 30.53968 -48.41829 40420 ft 440 kts 251°
2026-04-07 16:59 30.51758 -48.48450 40412 ft 442 kts 251°
2026-04-07 17:00 30.49536 -48.55100 40411 ft 441 kts 251°
2026-04-07 17:00 30.47336 -48.61663 40418 ft 439 kts 251°
2026-04-07 17:01 30.45109 -48.68298 40415 ft 440 kts 251°
2026-04-07 17:01 30.42897 -48.74880 40411 ft 443 kts 251°
2026-04-07 17:02 30.40655 -48.81536 40406 ft 444 kts 251°
2026-04-07 17:02 30.38411 -48.88181 40409 ft 442 kts 251°
2026-04-07 17:03 30.36173 -48.94795 40409 ft 441 kts 250°
2026-04-07 17:03 30.33931 -49.01409 40408 ft 441 kts 250°
2026-04-07 17:04 30.31688 -49.08014 40415 ft 441 kts 250°
2026-04-07 17:04 30.29434 -49.14642 40402 ft 444 kts 250°
2026-04-07 17:05 30.27166 -49.21296 40404 ft 445 kts 250°
2026-04-07 17:05 30.24893 -49.27947 40400 ft 445 kts 250°
2026-04-07 17:06 30.22616 -49.34601 40406 ft 446 kts 251°
2026-04-07 17:06 30.20323 -49.41288 40393 ft 448 kts 251°
2026-04-07 17:07 30.18025 -49.47977 40401 ft 447 kts 250°
2026-04-07 17:07 30.15730 -49.54644 40398 ft 447 kts 251°
2026-04-07 17:08 30.13422 -49.61338 40394 ft 450 kts 251°
2026-04-07 17:08 30.11097 -49.68065 40396 ft 451 kts 251°
2026-04-07 17:09 30.08769 -49.74788 40389 ft 450 kts 250°
2026-04-07 17:09 30.06440 -49.81498 40393 ft 451 kts 250°
2026-04-07 17:10 30.04103 -49.88224 40387 ft 452 kts 250°
2026-04-07 17:10 30.01759 -49.94954 40389 ft 452 kts 250°
2026-04-07 17:11 29.99379 -50.01670 40387 ft 454 kts 249°
2026-04-07 17:11 29.96800 -50.08335 40384 ft 455 kts 248°
2026-04-07 17:12 29.94162 -50.14965 40384 ft 455 kts 248°
2026-04-07 17:12 29.91533 -50.21598 40383 ft 455 kts 248°
2026-04-07 17:13 29.88909 -50.28252 40384 ft 457 kts 248°
2026-04-07 17:13 29.86279 -50.34925 40381 ft 457 kts 248°
2026-04-07 17:14 29.83669 -50.41535 40382 ft 456 kts 248°
2026-04-07 17:14 29.81037 -50.48187 40380 ft 458 kts 248°
2026-04-07 17:15 29.78389 -50.54870 40376 ft 459 kts 248°
2026-04-07 17:15 29.75733 -50.61557 40372 ft 459 kts 248°
2026-04-07 17:16 29.73078 -50.68230 40375 ft 458 kts 248°
2026-04-07 17:16 29.70418 -50.74904 40370 ft 459 kts 248°
2026-04-07 17:17 29.67752 -50.81581 40371 ft 460 kts 248°
2026-04-07 17:17 29.65082 -50.88257 40370 ft 460 kts 248°
2026-04-07 17:18 29.62403 -50.94943 40366 ft 461 kts 248°
2026-04-07 17:18 29.59721 -51.01626 40366 ft 460 kts 248°
2026-04-07 17:19 29.57034 -51.08305 40365 ft 460 kts 248°
2026-04-07 17:19 29.54345 -51.14980 40363 ft 460 kts 248°
2026-04-07 17:20 29.51654 -51.21649 40363 ft 460 kts 248°
2026-04-07 17:20 29.48958 -51.28320 40361 ft 461 kts 248°
2026-04-07 17:21 29.46258 -51.34986 40356 ft 461 kts 248°
2026-04-07 17:21 29.43550 -51.41662 40360 ft 462 kts 248°
2026-04-07 17:22 29.40833 -51.48348 40358 ft 462 kts 247°
2026-04-07 17:22 29.38113 -51.55027 40360 ft 462 kts 247°
2026-04-07 17:23 29.35853 -51.60570 40360 ft 462 kts 247°
2026-04-07 17:23 29.32685 -51.68325 40357 ft 463 kts 247°
2026-04-07 17:24 29.29953 -51.75002 40353 ft 463 kts 247°
2026-04-07 17:24 29.27216 -51.81676 40348 ft 463 kts 247°
2026-04-07 17:25 29.24921 -51.87265 40354 ft 463 kts 247°
2026-04-07 17:25 29.22177 -51.93936 40350 ft 463 kts 247°
2026-04-07 17:26 29.19431 -52.00602 40349 ft 463 kts 247°
2026-04-07 17:26 29.16700 -52.07219 40348 ft 463 kts 247°
2026-04-07 17:27 29.13948 -52.13874 40343 ft 463 kts 247°
2026-04-07 17:27 29.11192 -52.20529 40344 ft 463 kts 247°
2026-04-07 17:28 29.08430 -52.27187 40344 ft 463 kts 247°
2026-04-07 17:28 29.05667 -52.33834 40341 ft 463 kts 247°
2026-04-07 17:29 29.02903 -52.40475 40341 ft 463 kts 247°
2026-04-07 17:29 29.00135 -52.47111 40338 ft 463 kts 247°
2026-04-07 17:30 28.97364 -52.53745 40332 ft 463 kts 247°
2026-04-07 17:30 28.94589 -52.60376 40337 ft 462 kts 247°
2026-04-07 17:31 28.91814 -52.66998 40339 ft 462 kts 247°
2026-04-07 17:31 28.89035 -52.73616 40337 ft 462 kts 247°
2026-04-07 17:32 28.86252 -52.80232 40329 ft 462 kts 247°
2026-04-07 17:32 28.83469 -52.86839 40331 ft 462 kts 247°
2026-04-07 17:33 28.80686 -52.93432 40330 ft 462 kts 247°
2026-04-07 17:33 28.77895 -53.00034 40325 ft 462 kts 247°
2026-04-07 17:34 28.75101 -53.06632 40328 ft 462 kts 246°
2026-04-07 17:34 28.72308 -53.13217 40326 ft 462 kts 246°
2026-04-07 17:35 28.69511 -53.19802 40330 ft 462 kts 246°
2026-04-07 17:35 28.66729 -53.26339 40316 ft 462 kts 246°
2026-04-07 17:36 28.63927 -53.32910 40333 ft 461 kts 246°
2026-04-07 17:36 28.61124 -53.39475 40312 ft 461 kts 246°
2026-04-07 17:37 28.58318 -53.46037 40328 ft 461 kts 246°
2026-04-07 17:37 28.55508 -53.52596 40309 ft 461 kts 246°
2026-04-07 17:38 28.52698 -53.59145 40327 ft 461 kts 246°
2026-04-07 17:38 28.49879 -53.65702 40305 ft 461 kts 246°
2026-04-07 17:39 28.47060 -53.72251 40322 ft 461 kts 246°
2026-04-07 17:39 28.44238 -53.78793 40315 ft 461 kts 246°
2026-04-07 17:40 28.41416 -53.85326 40317 ft 461 kts 246°
2026-04-07 17:40 28.38588 -53.91864 40315 ft 461 kts 246°
2026-04-07 17:41 28.35757 -53.98395 40316 ft 461 kts 246°
2026-04-07 17:41 28.32925 -54.04919 40314 ft 461 kts 246°
2026-04-07 17:42 28.30092 -54.11436 40316 ft 460 kts 246°
2026-04-07 17:42 28.27273 -54.17908 40311 ft 461 kts 246°
2026-04-07 17:43 28.24434 -54.24418 40310 ft 461 kts 246°
2026-04-07 17:43 28.21590 -54.30927 40307 ft 460 kts 246°
2026-04-07 17:44 28.18746 -54.37426 40309 ft 460 kts 246°
2026-04-07 17:44 28.15899 -54.43920 40310 ft 460 kts 246°
2026-04-07 17:45 28.13051 -54.50409 40307 ft 460 kts 246°
2026-04-07 17:45 28.10202 -54.56887 40307 ft 459 kts 246°
2026-04-07 17:46 28.07355 -54.63350 40307 ft 458 kts 246°
2026-04-07 17:46 28.04508 -54.69806 40301 ft 459 kts 245°
2026-04-07 17:47 28.01651 -54.76273 40304 ft 460 kts 245°
2026-04-07 17:47 27.98791 -54.82734 40301 ft 459 kts 245°
2026-04-07 17:48 27.95932 -54.89183 40301 ft 458 kts 245°
2026-04-07 17:48 27.93074 -54.95623 40298 ft 458 kts 246°
2026-04-07 17:49 27.90210 -55.02064 40291 ft 458 kts 245°
2026-04-07 17:49 27.87343 -55.08501 40295 ft 458 kts 245°
2026-04-07 17:50 27.84477 -55.14927 40295 ft 458 kts 245°
2026-04-07 17:50 27.81626 -55.21309 40292 ft 458 kts 245°
2026-04-07 17:51 27.78753 -55.27729 40292 ft 458 kts 245°
2026-04-07 17:51 27.75881 -55.34138 40284 ft 457 kts 245°
2026-04-07 17:52 27.73005 -55.40546 40290 ft 458 kts 245°
2026-04-07 17:52 27.70127 -55.46949 40284 ft 458 kts 244°
2026-04-07 17:53 27.67244 -55.53353 40285 ft 457 kts 244°
2026-04-07 17:53 27.62920 -55.62938 40282 ft 457 kts 245°
2026-04-07 17:54 27.60038 -55.69315 40279 ft 457 kts 244°
2026-04-07 17:54 27.57149 -55.75698 40278 ft 457 kts 245°
2026-04-07 17:55 27.54260 -55.82071 40279 ft 457 kts 244°
2026-04-07 17:55 27.51366 -55.88446 40276 ft 457 kts 245°
2026-04-07 17:56 27.48471 -55.94811 40273 ft 457 kts 244°
2026-04-07 17:56 27.45573 -56.01173 40267 ft 457 kts 244°
2026-04-07 17:57 27.42673 -56.07529 40270 ft 457 kts 244°
2026-04-07 17:57 27.39767 -56.13888 40271 ft 457 kts 245°
2026-04-07 17:58 27.36862 -56.20239 40266 ft 457 kts 244°
2026-04-07 17:58 27.33954 -56.26590 40265 ft 457 kts 245°
2026-04-07 17:59 27.31041 -56.32935 40266 ft 457 kts 244°
2026-04-07 17:59 27.28130 -56.39271 40264 ft 456 kts 245°
2026-04-07 18:00 27.25239 -56.45553 40264 ft 455 kts 244°
2026-04-07 18:00 27.22328 -56.51869 40264 ft 455 kts 245°
2026-04-07 18:01 27.19413 -56.58183 40260 ft 455 kts 245°
2026-04-07 18:01 27.16500 -56.64480 40260 ft 454 kts 245°
2026-04-07 18:02 27.13593 -56.70757 40255 ft 453 kts 244°
2026-04-07 18:02 27.10689 -56.77022 40257 ft 452 kts 244°
2026-04-07 18:03 27.07787 -56.83272 40257 ft 451 kts 244°
2026-04-07 18:03 27.04882 -56.89516 40249 ft 450 kts 244°
2026-04-07 18:04 27.01987 -56.95733 40253 ft 450 kts 244°
2026-04-07 18:04 26.98801 -57.01766 40252 ft 451 kts 238°
2026-04-07 18:05 26.95188 -57.07514 40247 ft 451 kts 235°
2026-04-07 18:05 26.91507 -57.13187 40248 ft 449 kts 236°
2026-04-07 18:06 26.87828 -57.18837 40246 ft 449 kts 235°
2026-04-07 18:06 26.84156 -57.24488 40246 ft 449 kts 234°
2026-04-07 18:07 26.80486 -57.30144 40243 ft 448 kts 236°
2026-04-07 18:07 26.76844 -57.35750 40237 ft 448 kts 234°
2026-04-07 18:08 26.73177 -57.41388 40241 ft 448 kts 235°
2026-04-07 18:08 26.69512 -57.47015 40242 ft 448 kts 235°
2026-04-07 18:09 26.65845 -57.52637 40238 ft 448 kts 235°
2026-04-07 18:09 26.62179 -57.58253 40238 ft 447 kts 234°
2026-04-07 18:10 26.58508 -57.63866 40233 ft 448 kts 235°
2026-04-07 18:10 26.54836 -57.69476 40233 ft 446 kts 234°
2026-04-07 18:11 26.51171 -57.75067 40230 ft 445 kts 234°
2026-04-07 18:11 26.47507 -57.80650 40225 ft 446 kts 234°
2026-04-07 18:12 26.43838 -57.86233 40231 ft 446 kts 235°
2026-04-07 18:12 26.40171 -57.91809 40228 ft 446 kts 234°
2026-04-07 18:13 26.37125 -57.96434 40228 ft 445 kts 234°
2026-04-07 18:13 26.33460 -58.01993 40223 ft 445 kts 234°
2026-04-07 18:14 26.29790 -58.07553 40221 ft 445 kts 234°
2026-04-07 18:14 26.26119 -58.13107 40219 ft 444 kts 234°
2026-04-07 18:15 26.22448 -58.18654 40213 ft 445 kts 235°
2026-04-07 18:15 26.18774 -58.24198 40218 ft 445 kts 235°
2026-04-07 18:16 26.15104 -58.29730 40218 ft 444 kts 235°
2026-04-07 18:16 26.11458 -58.35220 40214 ft 444 kts 235°
2026-04-07 18:17 26.07787 -58.40741 40218 ft 444 kts 234°
2026-04-07 18:17 26.04112 -58.46261 40203 ft 444 kts 235°
2026-04-07 18:18 26.00436 -58.51776 40210 ft 443 kts 235°
2026-04-07 18:18 25.96763 -58.57281 40211 ft 443 kts 235°
2026-04-07 18:19 25.93090 -58.62779 40204 ft 443 kts 235°
2026-04-07 18:19 25.89415 -58.68272 40205 ft 443 kts 235°
2026-04-07 18:20 25.85737 -58.73764 40204 ft 443 kts 235°
2026-04-07 18:20 25.82059 -58.79249 40202 ft 443 kts 235°
2026-04-07 18:21 25.78381 -58.84729 40201 ft 443 kts 235°
2026-04-07 18:21 25.74703 -58.90201 40201 ft 442 kts 235°
2026-04-07 18:22 25.71022 -58.95671 40197 ft 442 kts 235°
2026-04-07 18:22 25.67340 -59.01137 40198 ft 442 kts 235°
2026-04-07 18:23 25.63656 -59.06599 40192 ft 442 kts 235°
2026-04-07 18:23 25.59983 -59.12038 40195 ft 440 kts 235°
2026-04-07 18:24 25.56314 -59.17466 40190 ft 440 kts 235°
2026-04-07 18:24 25.52646 -59.22886 40189 ft 440 kts 235°
2026-04-07 18:25 25.48973 -59.28307 40190 ft 440 kts 235°
2026-04-07 18:25 25.45326 -59.33682 40190 ft 440 kts 235°
2026-04-07 18:26 25.41661 -59.39079 40188 ft 437 kts 235°
2026-04-07 18:26 25.38009 -59.44449 40185 ft 436 kts 235°
2026-04-07 18:27 25.34359 -59.49813 40193 ft 437 kts 235°
2026-04-07 18:27 25.30706 -59.55173 40179 ft 437 kts 235°
2026-04-07 18:28 25.27050 -59.60532 40185 ft 437 kts 235°
2026-04-07 18:28 25.23393 -59.65886 40172 ft 436 kts 235°
2026-04-07 18:29 25.19737 -59.71234 40192 ft 436 kts 235°
2026-04-07 18:29 25.16080 -59.76575 40171 ft 436 kts 235°
2026-04-07 18:30 25.12420 -59.81916 40186 ft 436 kts 235°
2026-04-07 18:30 25.08761 -59.87248 40177 ft 436 kts 235°
2026-04-07 18:31 25.05097 -59.92584 40169 ft 436 kts 235°
2026-04-07 18:31 25.01432 -59.97917 40177 ft 436 kts 236°
2026-04-07 18:32 24.98312 -60.03561 40179 ft 434 kts 243°
2026-04-07 18:32 24.95465 -60.09427 40176 ft 434 kts 244°
2026-04-07 18:33 24.92674 -60.15322 40157 ft 434 kts 244°
2026-04-07 18:33 24.89878 -60.21218 40166 ft 434 kts 244°
2026-04-07 18:34 24.87068 -60.27108 40172 ft 435 kts 244°
2026-04-07 18:34 24.84248 -60.32998 40161 ft 435 kts 244°
2026-04-07 18:35 24.81428 -60.38879 40163 ft 434 kts 244°
2026-04-07 18:35 24.78609 -60.44753 40162 ft 434 kts 244°
2026-04-07 18:36 24.75787 -60.50625 40160 ft 434 kts 244°
2026-04-07 18:36 24.72963 -60.56495 40162 ft 434 kts 244°
2026-04-07 18:37 24.70135 -60.62365 40157 ft 434 kts 244°
2026-04-07 18:37 24.67306 -60.68230 40157 ft 434 kts 244°
2026-04-07 18:38 24.64474 -60.74095 40157 ft 434 kts 244°
2026-04-07 18:38 24.61639 -60.79957 40156 ft 434 kts 244°
2026-04-07 18:39 24.58802 -60.85815 40158 ft 434 kts 244°
2026-04-07 18:39 24.55982 -60.91632 40155 ft 434 kts 244°
2026-04-07 18:40 24.53142 -60.97483 40150 ft 434 kts 244°
2026-04-07 18:40 24.50298 -61.03335 40150 ft 434 kts 244°
2026-04-07 18:41 24.47452 -61.09183 40138 ft 434 kts 244°
2026-04-07 18:41 24.44606 -61.15025 40144 ft 434 kts 244°
2026-04-07 18:42 24.41762 -61.20855 40144 ft 433 kts 244°
2026-04-07 18:42 24.38916 -61.26682 40146 ft 433 kts 244°
2026-04-07 18:43 24.36067 -61.32508 40142 ft 433 kts 244°
2026-04-07 18:43 24.33216 -61.38331 40143 ft 433 kts 244°
2026-04-07 18:44 24.30364 -61.44149 40137 ft 433 kts 244°
2026-04-07 18:44 24.27507 -61.49970 40135 ft 433 kts 244°
2026-04-07 18:45 24.24654 -61.55774 40141 ft 432 kts 244°
2026-04-07 18:45 24.21807 -61.61561 40134 ft 431 kts 244°
2026-04-07 18:46 24.18958 -61.67345 40136 ft 431 kts 244°
2026-04-07 18:46 24.16107 -61.73125 40129 ft 431 kts 244°
2026-04-07 18:47 24.13253 -61.78906 40132 ft 431 kts 244°
2026-04-07 18:47 24.10398 -61.84680 40126 ft 431 kts 244°
2026-04-07 18:48 24.07540 -61.90454 40121 ft 431 kts 244°
2026-04-07 18:48 24.04684 -61.96215 40129 ft 431 kts 244°
2026-04-07 18:49 24.01826 -62.01976 40129 ft 431 kts 244°
2026-04-07 18:49 23.98967 -62.07730 40123 ft 431 kts 244°
2026-04-07 18:50 23.96105 -62.13484 40127 ft 431 kts 244°
2026-04-07 18:50 23.93244 -62.19231 40125 ft 431 kts 244°
2026-04-07 18:51 23.90377 -62.24981 40124 ft 431 kts 244°
2026-04-07 18:51 23.87507 -62.30730 40117 ft 431 kts 244°
2026-04-07 18:52 23.84656 -62.36435 40121 ft 430 kts 244°
2026-04-07 18:52 23.81785 -62.42173 40119 ft 430 kts 244°
2026-04-07 18:53 23.78915 -62.47901 40116 ft 430 kts 244°
2026-04-07 18:53 23.76044 -62.53626 40113 ft 430 kts 244°
2026-04-07 18:54 23.73167 -62.59356 40113 ft 430 kts 244°
2026-04-07 18:54 23.70287 -62.65085 40113 ft 430 kts 244°
2026-04-07 18:55 23.67408 -62.70806 40115 ft 430 kts 244°
2026-04-07 18:55 23.64525 -62.76527 40113 ft 430 kts 244°
2026-04-07 18:56 23.61647 -62.82231 40111 ft 429 kts 244°
2026-04-07 18:56 23.58767 -62.87934 40110 ft 430 kts 244°
2026-04-07 18:57 23.55882 -62.93640 40108 ft 430 kts 244°
2026-04-07 18:57 23.52994 -62.99344 40108 ft 430 kts 244°
2026-04-07 18:58 23.50039 -63.05008 40105 ft 432 kts 240°
2026-04-07 18:58 23.46622 -63.10402 40105 ft 433 kts 238°
2026-04-07 18:59 23.43113 -63.15718 40102 ft 432 kts 238°
2026-04-07 18:59 23.39591 -63.21009 40102 ft 431 kts 238°
2026-04-07 19:00 23.36076 -63.26298 40101 ft 431 kts 238°
2026-04-07 19:00 23.32563 -63.31589 40102 ft 431 kts 238°
2026-04-07 19:01 23.29643 -63.35989 40101 ft 431 kts 238°
2026-04-07 19:02 23.23802 -63.44776 40097 ft 431 kts 238°
2026-04-07 19:02 23.20855 -63.49204 40096 ft 431 kts 238°
2026-04-07 19:03 23.17338 -63.54481 40097 ft 431 kts 238°
2026-04-07 19:03 23.13820 -63.59755 40093 ft 431 kts 238°
2026-04-07 19:04 23.10301 -63.65026 40092 ft 431 kts 238°
2026-04-07 19:04 23.06781 -63.70293 40091 ft 431 kts 238°
2026-04-07 19:05 23.03260 -63.75556 40089 ft 431 kts 238°
2026-04-07 19:05 22.99734 -63.80819 40080 ft 430 kts 238°
2026-04-07 19:06 22.96219 -63.86061 40086 ft 429 kts 238°
2026-04-07 19:06 22.92734 -63.91254 40083 ft 428 kts 238°
2026-04-07 19:07 22.89224 -63.96481 40083 ft 428 kts 238°
2026-04-07 19:07 22.85713 -64.01702 40081 ft 429 kts 238°
2026-04-07 19:08 22.82198 -64.06925 40077 ft 429 kts 238°
2026-04-07 19:08 22.78681 -64.12143 40082 ft 429 kts 238°
2026-04-07 19:09 22.75165 -64.17356 40075 ft 428 kts 238°
2026-04-07 19:09 22.71656 -64.22553 40074 ft 427 kts 238°
2026-04-07 19:10 22.68152 -64.27737 40076 ft 427 kts 238°
2026-04-07 19:10 22.64643 -64.32924 40076 ft 427 kts 238°
2026-04-07 19:11 22.61135 -64.38106 40076 ft 427 kts 238°
2026-04-07 19:11 22.57626 -64.43281 40073 ft 426 kts 238°
2026-04-07 19:12 22.54118 -64.48452 40072 ft 426 kts 238°
2026-04-07 19:12 22.50607 -64.53621 40070 ft 426 kts 238°
2026-04-07 19:13 22.47098 -64.58784 40070 ft 426 kts 238°
2026-04-07 19:13 22.43583 -64.63949 40071 ft 426 kts 238°
2026-04-07 19:14 22.40068 -64.69109 40068 ft 426 kts 238°
2026-04-07 19:14 22.36552 -64.74266 40064 ft 426 kts 238°
2026-04-07 19:15 22.33033 -64.79422 40064 ft 426 kts 238°
2026-04-07 19:15 22.29513 -64.84574 40064 ft 426 kts 238°
2026-04-07 19:16 22.26002 -64.89708 40065 ft 424 kts 238°
2026-04-07 19:16 22.22500 -64.94824 40064 ft 424 kts 238°
2026-04-07 19:17 22.18997 -64.99939 40062 ft 424 kts 238°
2026-04-07 19:17 22.15492 -65.05051 40062 ft 423 kts 238°
2026-04-07 19:18 22.11991 -65.10151 40064 ft 423 kts 237°
2026-04-07 19:18 22.07927 -65.14795 40056 ft 431 kts 225°
2026-04-07 19:19 22.03202 -65.18799 40055 ft 433 kts 223°
2026-04-07 19:19 21.98366 -65.22658 40055 ft 432 kts 222°
2026-04-07 19:20 21.93523 -65.26499 40052 ft 432 kts 222°
2026-04-07 19:20 21.88694 -65.30353 40053 ft 432 kts 222°
2026-04-07 19:21 21.83873 -65.34213 40052 ft 432 kts 222°
2026-04-07 19:21 21.79059 -65.38069 40033 ft 431 kts 223°
2026-04-07 19:22 21.74263 -65.41906 40051 ft 429 kts 223°
2026-04-07 19:22 21.69482 -65.45727 40048 ft 428 kts 223°
2026-04-07 19:23 21.64707 -65.49542 40048 ft 427 kts 223°
2026-04-07 19:23 21.59960 -65.53327 40048 ft 423 kts 223°
2026-04-07 19:24 21.55232 -65.57097 40048 ft 423 kts 223°
2026-04-07 19:24 21.50507 -65.60861 40044 ft 422 kts 223°
2026-04-07 19:25 21.45795 -65.64611 40042 ft 421 kts 223°
2026-04-07 19:25 21.41097 -65.68348 40046 ft 420 kts 223°
2026-04-07 19:26 21.36396 -65.72084 40041 ft 420 kts 223°
2026-04-07 19:26 21.31727 -65.75792 40035 ft 420 kts 223°
2026-04-07 19:27 21.27026 -65.79521 40036 ft 420 kts 223°
2026-04-07 19:27 21.22329 -65.83242 40034 ft 419 kts 223°
2026-04-07 19:28 21.17649 -65.86948 40033 ft 418 kts 223°
2026-04-07 19:28 21.12975 -65.90649 40031 ft 418 kts 223°
2026-04-07 19:29 21.08301 -65.94346 40027 ft 418 kts 223°
2026-04-07 19:29 21.03629 -65.98037 40028 ft 417 kts 223°
2026-04-07 19:30 20.98966 -66.01718 40012 ft 417 kts 223°
2026-04-07 19:30 20.94304 -66.05396 40038 ft 416 kts 223°
2026-04-07 19:31 20.89647 -66.09067 40031 ft 416 kts 223°
2026-04-07 19:31 20.84986 -66.12739 40025 ft 416 kts 223°
2026-04-07 19:32 20.80327 -66.16406 40024 ft 416 kts 223°
2026-04-07 19:32 20.75662 -66.20074 40027 ft 416 kts 223°
2026-04-07 19:33 20.71000 -66.23738 40025 ft 416 kts 223°
2026-04-07 19:33 20.66345 -66.27392 40026 ft 415 kts 223°
2026-04-07 19:34 20.61696 -66.31039 40027 ft 414 kts 223°
2026-04-07 19:34 20.57049 -66.34683 40023 ft 414 kts 223°
2026-04-07 19:35 20.52401 -66.38324 40021 ft 414 kts 223°
2026-04-07 19:35 20.47753 -66.41963 40021 ft 415 kts 223°
2026-04-07 19:36 20.43102 -66.45601 40011 ft 415 kts 223°
2026-04-07 19:36 20.38450 -66.49236 40018 ft 414 kts 223°
2026-04-07 19:37 20.33802 -66.52866 40013 ft 414 kts 223°
2026-04-07 19:37 20.29155 -66.56493 40015 ft 414 kts 223°
2026-04-07 19:38 20.24506 -66.60118 40018 ft 414 kts 223°
2026-04-07 19:38 20.19886 -66.63718 39954 ft 414 kts 223°
2026-04-07 19:38 20.17570 -66.65520 39730 ft 411 kts 223°
2026-04-07 19:39 20.15269 -66.67308 39468 ft 408 kts 223°
2026-04-07 19:39 20.12978 -66.69090 39244 ft 408 kts 223°
2026-04-07 19:39 20.10690 -66.70871 39012 ft 408 kts 223°
2026-04-07 19:39 20.08393 -66.72658 38789 ft 408 kts 223°
2026-04-07 19:40 20.06106 -66.74437 38537 ft 406 kts 223°
2026-04-07 19:40 20.03834 -66.76199 38177 ft 402 kts 223°
2026-04-07 19:40 20.01578 -66.77951 37726 ft 401 kts 223°
2026-04-07 19:40 19.99389 -66.79763 37247 ft 396 kts 228°
2026-04-07 19:41 19.97379 -66.81765 36690 ft 396 kts 229°
2026-04-07 19:41 19.95399 -66.83803 36183 ft 397 kts 230°
2026-04-07 19:41 19.93425 -66.85854 35680 ft 397 kts 229°
2026-04-07 19:41 19.91448 -66.87914 35137 ft 399 kts 229°
2026-04-07 19:42 19.89462 -66.89987 34590 ft 401 kts 229°
2026-04-07 19:42 19.87460 -66.92076 34005 ft 405 kts 229°
2026-04-07 19:42 19.85448 -66.94175 33332 ft 407 kts 228°
2026-04-07 19:42 19.83425 -66.96285 32710 ft 408 kts 228°
2026-04-07 19:43 19.81400 -66.98396 32094 ft 409 kts 228°
2026-04-07 19:43 19.79364 -67.00518 31498 ft 410 kts 228°
2026-04-07 19:43 19.77336 -67.02629 31080 ft 407 kts 228°
2026-04-07 19:43 19.75324 -67.04724 30641 ft 404 kts 228°
2026-04-07 19:44 19.73324 -67.06805 30195 ft 402 kts 227°
2026-04-07 19:44 19.71334 -67.08876 29694 ft 399 kts 227°
2026-04-07 19:44 19.69359 -67.10932 29232 ft 396 kts 227°
2026-04-07 19:44 19.67396 -67.12973 28784 ft 394 kts 227°
2026-04-07 19:45 19.65446 -67.15001 28335 ft 392 kts 227°
2026-04-07 19:45 19.63497 -67.17026 27862 ft 390 kts 227°
2026-04-07 19:45 19.61563 -67.19036 27407 ft 388 kts 227°
2026-04-07 19:45 19.60288 -67.20360 27114 ft 386 kts 227°
2026-04-07 19:46 19.58376 -67.22346 26681 ft 384 kts 227°
2026-04-07 19:46 19.55830 -67.24989 26064 ft 382 kts 226°
2026-04-07 19:46 19.54575 -67.26291 25758 ft 381 kts 226°
2026-04-07 19:46 19.52688 -67.28248 25314 ft 379 kts 226°
2026-04-07 19:47 19.50807 -67.30200 24873 ft 377 kts 226°
2026-04-07 19:47 19.48937 -67.32138 24418 ft 376 kts 226°
2026-04-07 19:47 19.47069 -67.34074 23974 ft 375 kts 226°
2026-04-07 19:47 19.45208 -67.36002 23523 ft 374 kts 226°
2026-04-07 19:48 19.43354 -67.37921 23027 ft 372 kts 226°
2026-04-07 19:48 19.41512 -67.39828 22594 ft 369 kts 226°
2026-04-07 19:48 19.39684 -67.41719 22154 ft 366 kts 225°
2026-04-07 19:48 19.37869 -67.43597 21709 ft 364 kts 225°
2026-04-07 19:49 19.36064 -67.45464 21281 ft 361 kts 225°
2026-04-07 19:49 19.34272 -67.47316 20849 ft 359 kts 225°
2026-04-07 19:49 19.32487 -67.49161 20402 ft 357 kts 225°
2026-04-07 19:49 19.30714 -67.50993 19991 ft 355 kts 225°
2026-04-07 19:50 19.28947 -67.52818 19573 ft 354 kts 225°
2026-04-07 19:50 19.27190 -67.54632 19154 ft 353 kts 225°
2026-04-07 19:50 19.25437 -67.56442 18719 ft 352 kts 225°
2026-04-07 19:50 19.23690 -67.58245 18308 ft 350 kts 225°
2026-04-07 19:51 19.21946 -67.60043 17837 ft 349 kts 225°
2026-04-07 19:51 19.20218 -67.61825 17415 ft 346 kts 225°
2026-04-07 19:51 19.18503 -67.63593 17001 ft 343 kts 225°
2026-04-07 19:51 19.16800 -67.65348 16595 ft 341 kts 225°
2026-04-07 19:52 19.15110 -67.67090 16185 ft 338 kts 225°
2026-04-07 19:52 19.13431 -67.68819 15765 ft 336 kts 225°
2026-04-07 19:52 19.11761 -67.70538 15346 ft 334 kts 225°
2026-04-07 19:52 19.10102 -67.72246 14934 ft 332 kts 225°
2026-04-07 19:53 19.08451 -67.73945 14533 ft 330 kts 225°
2026-04-07 19:53 19.06809 -67.75634 14143 ft 328 kts 225°
2026-04-07 19:53 19.05176 -67.77313 13729 ft 326 kts 224°
2026-04-07 19:53 19.03553 -67.78983 13299 ft 324 kts 224°
2026-04-07 19:54 19.01945 -67.80635 12916 ft 321 kts 224°
2026-04-07 19:54 19.00350 -67.82274 12524 ft 318 kts 224°
2026-04-07 19:54 18.98772 -67.83895 12157 ft 315 kts 224°
2026-04-07 19:54 18.97211 -67.85498 11794 ft 312 kts 224°
2026-04-07 19:55 18.95674 -67.87077 11576 ft 302 kts 224°
2026-04-07 19:55 18.94231 -67.88559 11495 ft 283 kts 224°
2026-04-07 19:55 18.92841 -67.89986 11384 ft 268 kts 224°
2026-04-07 19:55 18.91526 -67.91335 11267 ft 260 kts 224°
2026-04-07 19:56 18.90262 -67.92631 11144 ft 254 kts 223°
2026-04-07 19:56 18.89012 -67.93913 11028 ft 247 kts 223°
2026-04-07 19:56 18.87795 -67.95161 10880 ft 243 kts 223°
2026-04-07 19:56 18.86580 -67.96406 10615 ft 243 kts 223°
2026-04-07 19:57 18.85367 -67.97650 10364 ft 243 kts 223°
2026-04-07 19:57 18.84159 -67.98888 10140 ft 242 kts 224°
2026-04-07 19:57 18.83056 -68.00289 9952 ft 257 kts 238°
2026-04-07 19:57 18.82253 -68.02011 9817 ft 264 kts 245°
2026-04-07 19:58 18.81555 -68.03808 9697 ft 265 kts 246°
2026-04-07 19:58 18.80872 -68.05611 9583 ft 264 kts 246°
2026-04-07 19:58 18.80187 -68.07410 9484 ft 264 kts 246°
2026-04-07 19:58 18.79499 -68.09206 9375 ft 264 kts 246°
2026-04-07 19:59 18.78809 -68.10996 9270 ft 263 kts 245°
2026-04-07 19:59 18.78118 -68.12784 9161 ft 263 kts 245°
2026-04-07 19:59 18.77427 -68.14568 9051 ft 263 kts 245°
2026-04-07 19:59 18.76734 -68.16356 8939 ft 263 kts 245°
2026-04-07 20:00 18.76043 -68.18138 8839 ft 262 kts 245°
2026-04-07 20:00 18.75351 -68.19920 8740 ft 262 kts 245°
2026-04-07 20:00 18.73968 -68.23479 8512 ft 262 kts 245°
2026-04-07 20:01 18.73279 -68.25253 8404 ft 261 kts 245°
2026-04-07 20:01 18.72590 -68.27023 8287 ft 262 kts 245°
2026-04-07 20:01 18.71900 -68.28797 8186 ft 261 kts 245°
2026-04-07 20:01 18.71223 -68.30540 8078 ft 252 kts 245°
2026-04-07 20:02 18.70569 -68.32216 8000 ft 242 kts 244°
2026-04-07 20:02 18.69928 -68.33836 7785 ft 238 kts 244°
2026-04-07 20:02 18.69290 -68.35441 7570 ft 236 kts 244°
2026-04-07 20:02 18.68654 -68.37037 7375 ft 236 kts 244°
2026-04-07 20:03 18.68018 -68.38635 7177 ft 237 kts 244°
2026-04-07 20:03 18.67382 -68.40233 7027 ft 236 kts 245°
2026-04-07 20:03 18.66742 -68.41842 6731 ft 240 kts 244°
2026-04-07 20:03 18.66093 -68.43471 6446 ft 240 kts 244°
2026-04-07 20:04 18.65449 -68.45092 6142 ft 240 kts 244°
2026-04-07 20:04 18.64807 -68.46704 5820 ft 237 kts 244°
2026-04-07 20:04 18.64175 -68.48296 5474 ft 235 kts 244°
2026-04-07 20:04 18.63538 -68.49894 5048 ft 238 kts 244°
2026-04-07 20:05 18.62898 -68.51502 4711 ft 237 kts 244°
2026-04-07 20:05 18.62266 -68.53090 4434 ft 232 kts 243°
2026-04-07 20:05 18.61649 -68.54642 4184 ft 228 kts 243°
2026-04-07 20:05 18.60876 -68.56040 3961 ft 220 kts 225°
2026-04-07 20:06 18.59647 -68.56881 3731 ft 207 kts 192°
2026-04-07 20:06 18.58265 -68.56933 3528 ft 196 kts 168°
2026-04-07 20:06 18.56956 -68.56600 3320 ft 192 kts 161°
2026-04-07 20:06 18.55699 -68.56211 3115 ft 186 kts 161°
2026-04-07 20:07 18.54512 -68.55748 2927 ft 179 kts 152°
2026-04-07 20:07 18.53537 -68.54900 2494 ft 185 kts 127°
2026-04-07 20:07 18.53050 -68.53683 2318 ft 178 kts 101°
2026-04-07 20:07 18.53114 -68.52417 2208 ft 170 kts 83°
2026-04-07 20:08 18.53419 -68.51247 2084 ft 163 kts 78°
2026-04-07 20:08 18.53752 -68.50114 1854 ft 162 kts 77°
2026-04-07 20:08 18.54080 -68.48988 1679 ft 158 kts 78°
2026-04-07 20:08 18.54397 -68.47891 1523 ft 157 kts 78°
2026-04-07 20:09 18.54711 -68.46775 1399 ft 160 kts 77°
2026-04-07 20:09 18.55023 -68.45662 1215 ft 155 kts 79°
2026-04-07 20:09 18.55312 -68.44617 1060 ft 141 kts 78°
2026-04-07 20:09 18.55570 -68.43655 982 ft 134 kts 78°
2026-04-07 20:10 18.55819 -68.42709 907 ft 134 kts 78°
2026-04-07 20:10 18.56081 -68.41746 772 ft 136 kts 78°
2026-04-07 20:10 18.56346 -68.40802 584 ft 133 kts 81°
2026-04-07 20:10 18.56595 -68.39863 406 ft 133 kts 78°
2026-04-07 20:11 18.56853 -68.38929 223 ft 132 kts 79°
2026-04-07 20:11 18.57107 -68.38010 59 ft 129 kts 79°
2026-04-07 20:11 18.57323 -68.37228 49 ft 87 kts 73°
2026-04-07 20:11 18.57471 -68.36700 47 ft 64 kts 74°
2026-04-07 20:12 18.57581 -68.36303 50 ft 39 kts 73°
2026-04-07 20:12 18.57603 -68.36115 54 ft 24 kts 93°
2026-04-07 20:12 18.57578 -68.35972 52 ft 12 kts 104°
2026-04-07 20:12 18.57541 -68.35887 47 ft 13 kts 124°
2026-04-07 20:13 18.57464 -68.35840 50 ft 14 kts 169°
2026-04-07 20:13 18.57367 -68.35831 50 ft 14 kts 177°
2026-04-07 20:13 18.57266 -68.35826 52 ft 15 kts 177°
2026-04-07 20:13 18.57157 -68.35819 48 ft 16 kts 176°
2026-04-07 20:14 18.57048 -68.35813 52 ft 13 kts 176°
2026-04-07 20:14 18.56979 -68.35840 51 ft 10 kts 242°
2026-04-07 20:14 18.56965 -68.35920 48 ft 12 kts 265°
2026-04-07 20:14 18.56957 -68.36014 54 ft 14 kts 265°
2026-04-07 20:15 18.56948 -68.36120 49 ft 15 kts 264°
2026-04-07 20:15 18.56937 -68.36231 48 ft 16 kts 264°
2026-04-07 20:15 18.56927 -68.36349 52 ft 17 kts 264°
2026-04-07 20:15 18.56917 -68.36473 54 ft 18 kts 265°
2026-04-07 20:16 18.56905 -68.36603 49 ft 18 kts 265°
2026-04-07 20:16 18.56895 -68.36716 49 ft 11 kts 262°
2026-04-07 20:16 18.56845 -68.36755 48 ft 9 kts 181°
2026-04-07 20:16 18.56779 -68.36752 51 ft 9 kts 179°
2026-04-07 20:17 18.56714 -68.36753 51 ft 10 kts 181°
2026-04-07 20:17 18.56634 -68.36755 51 ft 13 kts 181°
2026-04-07 20:17 18.56543 -68.36749 50 ft 10 kts 150°
2026-04-07 20:17 18.56530 -68.36682 49 ft 10 kts 85°
2026-04-07 20:18 18.56536 -68.36603 49 ft 12 kts 85°
2026-04-07 20:18 18.56544 -68.36512 51 ft 13 kts 85°
2026-04-07 20:18 18.56548 -68.36422 54 ft 10 kts 103°
2026-04-07 20:18 18.56505 -68.36400 50 ft 7 kts 176°
2026-04-07 20:19 18.56449 -68.36398 47 ft 8 kts 175°
2026-04-07 20:19 18.56401 -68.36393 50 ft 5 kts 175°
2026-04-07 20:19 18.56388 -68.36392 47 ft 0 kts 175°